EW3082 Weather Reports


time (UTC)temp
F
wind
direction
speed
knots
gust
knots
rain 1hr
in
rain 24hr
in
rain mn
in
humidity
%
barometer
mb
20260507205415 69 276 4.3 11.3 0.00 5.93 5.92 44 1012.4
20260507205310 69 284 3.5 11.3 0.00 5.93 5.92 45 1012.4
20260507205214 69 293 4.3 11.3 0.00 5.93 5.92 44 1012.4
20260507205109 69 287 4.3 11.3 0.00 5.93 5.92 44 1012.5
20260507205012 69 245 5.2 11.3 0.00 5.93 5.92 44 1012.5
20260507204908 69 281 4.3 11.3 0.00 5.93 5.92 43 1012.5
20260507204807 69 215 3.5 10.4 0.00 5.93 5.92 45 1012.5
20260507204711 69 106 4.3 11.3 0.00 5.93 5.92 45 1012.6
20260507204606 69 39 4.3 11.3 0.00 5.93 5.92 45 1012.5
20260507204530 69 167 3.5 11.3 0.00 5.93 5.92 46 1012.5
20260507204510 69 196 2.6 11.3 0.00 5.93 5.92 45 1012.5
20260507204425 69 281 2.6 11.3 0.00 5.93 5.92 45 1012.5
20260507204319 69 195 4.3 11.3 0.00 5.93 5.92 45 1012.6
20260507204214 69 299 4.3 11.3 0.00 5.93 5.92 45 1012.6
20260507204122 69 274 4.3 11.3 0.00 5.93 5.92 46 1012.6
20260507204017 69 290 6.1 11.3 0.00 5.93 5.92 45 1012.7
20260507203921 69 333 5.2 11.3 0.00 5.93 5.92 45 1012.7
20260507203815 69 263 4.3 11.3 0.00 5.93 5.92 45 1012.8
20260507203710 69 283 1.7 12.2 0.00 5.93 5.92 44 1012.7
20260507203605 69 222 3.5 12.2 0.00 5.93 5.92 45 1012.7
20260507203509 69 99 5.2 12.2 0.00 5.93 5.92 45 1012.8
20260507203408 69 156 5.2 12.2 0.00 5.93 5.92 45 1012.7
20260507203313 69 205 3.5 12.2 0.00 5.93 5.92 46 1012.9
20260507203207 69 187 2.6 12.2 0.00 5.93 5.92 46 1012.9
20260507203132 68 291 2.6 12.2 0.00 5.93 5.92 46 1012.9
20260507203121 69 309 4.3 12.2 0.00 5.93 5.92 46 1012.8
20260507203026 69 148 3.5 12.2 0.00 5.93 5.92 47 1012.8
20260507202919 68 20 4.3 11.3 0.00 5.93 5.92 47 1012.8
20260507202814 68 290 5.2 11.3 0.00 5.93 5.92 46 1013.0
20260507202721 68 224 5.2 11.3 0.00 5.93 5.92 45 1012.9
20260507202616 68 298 6.1 11.3 0.00 5.93 5.92 45 1012.9
20260507202511 69 270 6.1 11.3 0.00 5.93 5.92 45 1013.1
20260507202435 69 279 2.6 11.3 0.00 5.93 5.92 46 1013.0
20260507202337 68 268 0.9 11.3 0.00 5.93 5.92 47 1013.0
20260507202211 68 172 2.6 11.3 0.00 5.93 5.92 49 1013.0
20260507202106 68 295 2.6 13.0 0.00 5.93 5.92 48 1013.0
20260507202030 68 90 3.5 13.0 0.00 5.93 5.92 48 1013.0
20260507201937 68 124 4.3 13.0 0.00 5.93 5.92 47 1013.0
20260507201811 68 195 4.3 13.0 0.00 5.93 5.92 47 1013.1
20260507201715 68 150 3.5 13.0 0.00 5.93 5.92 47 1013.1
20260507201656 67 138 3.5 13.0 0.00 5.93 5.92 46 1013.1
20260507201610 68 15 5.2 13.0 0.00 5.93 5.92 46 1013.1
20260507201534 68 298 4.3 13.0 0.00 5.93 5.92 47 1013.1
20260507201428 68 315 4.3 13.0 0.00 5.93 5.92 46 1013.1
20260507201311 68 231 4.3 13.0 0.00 5.93 5.92 47 1013.1
20260507201205 68 204 3.5 13.0 0.00 5.93 5.92 45 1013.2
20260507201133 68 244 4.3 13.0 0.00 5.93 5.92 45 1013.2
20260507201027 68 267 4.3 13.0 0.00 5.93 5.92 44 1013.3
20260507200951 69 294 3.5 13.0 0.00 5.93 5.92 45 1013.2
20260507200805 69 179 4.3 11.3 0.00 5.93 5.92 45 1013.2
20260507200720 69 127 4.3 11.3 0.00 5.93 5.92 45 1013.2
20260507200643 69 216 4.3 11.3 0.00 5.93 5.92 45 1013.3
20260507200516 69 243 5.2 11.3 0.00 5.93 5.92 45 1013.3
20260507200411 69 353 5.2 11.3 0.00 5.93 5.92 45 1013.4
20260507200318 70 263 4.3 11.3 0.00 5.93 5.92 46 1013.2
20260507200213 70 267 3.5 9.6 0.00 5.93 5.92 46 1013.3
20260507200128 70 336 2.6 9.6 0.00 5.93 5.92 46 1013.3
20260507200042 69 198 2.6 9.6 0.00 5.93 5.92 48 1013.3
20260507200008 69 257 3.5 9.6 0.00 5.93 5.92 48 1013.3
20260507195930 69 183 3.5 9.6 0.00 5.93 5.92 46 1013.3
20260507195805 69 116 1.7 7.8 0.00 5.93 5.92 47 1013.3
20260507195719 69 230 1.7 7.8 0.00 5.93 5.92 48 1013.3
20260507195626 69 129 1.7 7.8 0.00 5.93 5.92 48 1013.3
20260507195521 68 141 1.7 7.8 0.00 5.93 5.92 48 1013.3
20260507195415 68 220 2.6 7.8 0.00 5.93 5.92 48 1013.3
20260507195319 68 186 3.5 7.8 0.00 5.93 5.92 48 1013.3
20260507195213 68 226 2.6 7.8 0.00 5.93 5.92 47 1013.3
20260507195108 68 223 1.7 8.7 0.00 5.93 5.92 49 1013.3
20260507195016 68 233 3.5 10.4 0.00 5.93 5.92 48 1013.4
20260507194911 68 261 3.5 10.4 0.00 5.93 5.92 47 1013.4
20260507194805 68 240 4.3 10.4 0.00 5.93 5.92 46 1013.3
20260507194729 68 191 4.3 10.4 0.00 5.93 5.92 47 1013.5
20260507194632 68 275 3.5 10.4 0.00 5.93 5.92 48 1013.3
20260507194545 68 168 2.6 11.3 0.00 5.93 5.92 48 1013.3
20260507194505 68 236 2.6 15.6 0.00 5.93 5.92 47 1013.3
20260507194430 68 255 3.5 15.6 0.00 5.93 5.92 46 1013.3
20260507194345 68 222 5.2 15.6 0.00 5.93 5.92 47 1013.4
20260507194227 68 243 5.2 15.6 0.00 5.93 5.92 46 1013.4
20260507194126 68 286 3.5 15.6 0.00 5.93 5.92 47 1013.4
20260507194049 68 306 2.6 15.6 0.00 5.93 5.92 47 1013.4
20260507193943 68 333 3.5 15.6 0.00 5.93 5.92 47 1013.5
20260507193827 68 160 4.3 15.6 0.00 5.93 5.92 46 1013.5
20260507193741 68 150 5.2 15.6 0.00 5.93 5.92 48 1013.4
20260507193624 68 281 4.3 15.6 0.00 5.93 5.92 48 1013.4
20260507193518 68 219 3.5 13.0 0.00 5.93 5.92 48 1013.5
20260507193413 68 129 3.5 13.0 0.00 5.93 5.92 48 1013.5
20260507193322 67 154 3.5 13.0 0.00 5.93 5.92 47 1013.5
20260507193215 67 255 5.2 13.0 0.00 5.93 5.92 47 1013.6
20260507193119 68 304 5.2 13.0 0.00 5.93 5.92 47 1013.5
20260507193052 67 295 5.2 13.0 0.00 5.93 5.92 48 1013.5
20260507193016 68 300 5.2 13.0 0.00 5.93 5.92 48 1013.5
20260507192918 68 248 5.2 13.0 0.00 5.93 5.92 47 1013.6
20260507192813 68 332 6.1 13.0 0.00 5.93 5.92 47 1013.5
20260507192708 68 231 6.1 13.0 0.00 5.93 5.92 47 1013.6
20260507192616 68 217 4.3 12.2 0.00 5.93 5.92 47 1013.7
20260507192511 68 268 2.6 12.2 0.00 5.93 5.92 47 1013.7
20260507192436 67 195 4.3 12.2 0.00 5.93 5.92 47 1013.7
20260507192307 67 179 5.2 12.2 0.00 5.93 5.92 50 1013.6
20260507192222 67 116 3.5 12.2 0.00 5.93 5.92 50 1013.6
20260507192127 67 155 2.6 12.2 0.00 5.93 5.92 50 1013.6
20260507192022 67 339 2.6 12.2 0.00 5.93 5.92 48 1013.7
20260507191920 67 261 3.5 12.2 0.00 5.93 5.92 49 1013.8
20260507191824 67 218 6.1 12.2 0.00 5.93 5.92 47 1013.8
20260507191718 67 31 6.1 10.4 0.00 5.93 5.92 47 1013.8
20260507191643 67 215 5.2 10.4 0.00 5.93 5.92 47 1013.8
20260507191554 66 269 4.3 10.4 0.00 5.93 5.92 47 1013.7
20260507191536 67 260 4.3 10.4 0.00 5.93 5.92 47 1013.8
20260507191417 67 257 3.5 11.3 0.00 5.93 5.92 48 1013.7
20260507191312 67 8 4.3 13.9 0.00 5.93 5.92 48 1013.8
20260507191215 67 290 5.2 13.9 0.00 5.93 5.92 48 1013.8
20260507191114 67 276 4.3 13.9 0.00 5.93 5.92 49 1013.8
20260507191009 67 217 5.2 13.9 0.00 5.93 5.92 49 1013.8
20260507190913 67 263 3.5 13.9 0.00 5.93 5.92 49 1013.8
20260507190808 67 188 2.6 13.9 0.00 5.93 5.92 50 1013.8
20260507190732 67 96 3.5 13.9 0.00 5.93 5.92 49 1013.8
20260507190627 66 245 5.2 13.9 0.00 5.93 5.92 49 1013.9
20260507190551 67 188 5.2 13.9 0.00 5.93 5.92 49 1014.0
20260507190409 67 297 4.3 10.4 0.00 5.93 5.92 48 1014.0
20260507190324 67 238 3.5 8.7 0.00 5.93 5.92 48 1014.0
20260507190228 67 266 3.5 8.7 0.00 5.93 5.92 48 1014.0
20260507190155 67 247 3.5 8.7 0.00 5.93 5.92 48 1014.0
20260507190132 67 198 3.5 8.7 0.00 5.93 5.92 48 1014.0
20260507190021 67 283 4.3 8.7 0.00 5.93 5.92 48 1014.0
20260507185912 67 148 5.2 8.7 0.00 5.93 5.92 49 1014.0
20260507185805 67 207 3.5 8.7 0.00 5.93 5.92 49 1013.9
20260507185728 67 169 3.5 8.7 0.00 5.93 5.92 50 1013.9
20260507185606 67 108 4.3 8.7 0.00 5.93 5.92 48 1014.0
20260507185530 67 248 3.5 8.7 0.00 5.93 5.92 49 1014.0
20260507185453 67 349 2.6 8.7 0.00 5.93 5.92 50 1014.2
20260507185327 67 201 4.3 11.3 0.00 5.93 5.92 49 1014.1
20260507185229 66 218 4.3 11.3 0.00 5.93 5.92 49 1014.1
20260507185124 66 69 4.3 11.3 0.00 5.93 5.92 50 1014.1
20260507185018 66 85 2.6 11.3 0.00 5.93 5.92 51 1014.2
20260507184922 66 240 3.5 11.3 0.00 5.93 5.92 50 1014.3
20260507184820 67 169 3.5 11.3 0.00 5.93 5.92 49 1014.3
20260507184715 67 245 2.6 11.3 0.00 5.93 5.92 51 1014.3
20260507184619 67 84 3.5 11.3 0.00 5.93 5.92 49 1014.3
20260507184605 66 259 3.5 11.3 0.00 5.93 5.92 49 1014.3
20260507184512 67 304 4.3 11.3 0.00 5.93 5.92 48 1014.3
20260507184415 67 260 2.6 11.3 0.00 5.93 5.92 50 1014.3
20260507184310 67 86 3.5 11.3 0.00 5.93 5.92 50 1014.4
20260507184233 67 276 3.5 11.3 0.00 5.93 5.92 49 1014.3
20260507184110 67 268 3.5 11.3 0.00 5.93 5.92 50 1014.4
20260507184034 67 248 2.6 11.3 0.00 5.93 5.92 51 1014.4
20260507183908 66 253 2.6 11.3 0.00 5.93 5.92 51 1014.4
20260507183832 66 287 2.6 11.3 0.00 5.93 5.92 50 1014.4
20260507183707 66 278 3.5 11.3 0.00 5.93 5.92 50 1014.4
20260507183622 66 271 4.3 11.3 0.00 5.93 5.92 50 1014.5
20260507183526 66 279 4.3 12.2 0.00 5.93 5.92 51 1014.5
20260507183405 66 259 3.5 12.2 0.00 5.93 5.92 50 1014.5
20260507183320 66 271 3.5 12.2 0.00 5.93 5.92 50 1014.5
20260507183223 66 277 4.3 12.2 0.00 5.93 5.92 49 1014.5
20260507183117 66 217 5.2 12.2 0.00 5.93 5.92 49 1014.4
20260507183022 66 83 4.3 12.2 0.00 5.93 5.92 50 1014.5
20260507182933 66 149 4.3 12.2 0.00 5.93 5.92 50 1014.4
20260507182816 66 217 5.2 12.2 0.00 5.93 5.92 49 1014.5
20260507182731 66 203 3.5 12.2 0.00 5.93 5.92 50 1014.5
20260507182614 66 269 3.5 11.3 0.00 5.93 5.92 50 1014.4
20260507182512 66 268 4.3 11.3 0.00 5.93 5.92 50 1014.5
20260507182416 66 211 5.2 11.3 0.00 5.93 5.92 51 1014.5
20260507182311 66 44 4.3 11.3 0.00 5.93 5.92 51 1014.4
20260507182206 65 113 2.6 8.7 0.00 5.93 5.92 53 1014.5
20260507182109 65 222 2.6 8.7 0.00 5.93 5.92 52 1014.5
20260507182005 65 315 2.6 8.7 0.00 5.93 5.92 51 1014.5
20260507181929 65 167 3.5 8.7 0.00 5.93 5.92 50 1014.5
20260507181808 66 151 3.5 8.7 0.00 5.93 5.92 51 1014.5
20260507181723 66 229 4.3 8.7 0.00 5.93 5.92 52 1014.5
20260507181605 65 272 3.5 10.4 0.00 5.93 5.92 52 1014.5
20260507181544 65 240 3.5 10.4 0.00 5.93 5.92 52 1014.5
20260507181517 65 195 2.6 10.4 0.00 5.93 5.92 52 1014.7
20260507181441 65 279 2.6 11.3 0.00 5.93 5.92 53 1014.7
20260507181315 65 144 2.6 11.3 0.00 5.93 5.92 53 1014.7
20260507181219 65 84 4.3 11.3 0.00 5.93 5.92 53 1014.8
20260507181114 65 273 4.3 11.3 0.00 5.93 5.92 51 1014.8
20260507181041 65 250 4.3 11.3 0.00 5.93 5.92 51 1014.7
20260507180914 65 125 5.2 11.3 0.00 5.93 5.92 51 1014.9
20260507180839 65 254 5.2 11.3 0.00 5.93 5.92 51 1014.8
20260507180713 65 252 5.2 11.3 0.00 5.93 5.92 51 1014.9
20260507180607 65 284 5.2 11.3 0.00 5.93 5.92 51 1014.9
20260507180512 65 274 4.3 11.3 0.00 5.93 5.92 53 1014.9
20260507180407 65 217 3.5 9.6 0.00 5.93 5.92 54 1014.9
20260507180331 64 188 2.6 11.3 0.00 5.93 5.92 55 1014.9
20260507180208 64 115 0.9 11.3 0.00 5.93 5.92 56 1014.9
20260507180143 64 275 0.9 11.3 0.00 5.93 5.92 54 1014.9
20260507180055 63 286 0.0 11.3 0.00 5.93 5.92 55 1014.9
20260507180024 64 210 0.9 11.3 0.00 5.93 5.92 55 1014.9
20260507175915 64 137 2.6 11.3 0.00 5.93 5.92 53 1014.9
20260507175819 63 281 3.5 12.2 0.00 5.93 5.92 54 1014.9
20260507175714 63 86 2.6 12.2 0.00 5.93 5.92 53 1015.0
20260507175610 63 279 4.3 12.2 0.00 5.93 5.92 53 1015.0
20260507175538 63 274 4.3 12.2 0.00 5.93 5.92 52 1015.0
20260507175442 64 209 2.6 12.2 0.00 5.93 5.92 53 1015.0
20260507175345 64 115 1.7 12.2 0.00 5.93 5.92 54 1015.0
20260507175216 63 285 3.5 12.2 0.00 5.93 5.92 53 1015.0
20260507175109 63 200 6.1 12.2 0.00 5.93 5.92 52 1015.0
20260507175013 64 289 5.2 12.2 0.00 5.93 5.92 52 1015.0
20260507174907 64 300 4.3 12.2 0.00 5.93 5.92 52 1015.0
20260507174832 64 302 4.3 12.2 0.00 5.93 5.92 52 1015.0
20260507174705 64 231 3.5 12.2 0.00 5.93 5.92 52 1015.1
20260507174613 64 170 3.5 13.0 0.00 5.93 5.92 52 1015.1
20260507174544 63 297 3.5 13.0 0.00 5.93 5.92 53 1015.1
20260507174508 64 238 5.2 13.0 0.00 5.93 5.92 53 1015.1
20260507174414 64 271 7.0 13.0 0.00 5.93 5.92 52 1015.1
20260507174307 64 280 5.2 13.0 0.00 5.93 5.92 51 1015.1
20260507174220 64 248 5.2 13.0 0.00 5.93 5.92 50 1015.1
20260507174124 64 277 5.2 13.0 0.00 5.93 5.92 51 1015.1
20260507174019 64 283 4.3 13.0 0.00 5.93 5.92 50 1015.2
20260507173926 65 81 6.1 13.0 0.00 5.93 5.92 50 1015.2
20260507173821 65 266 6.1 13.0 0.00 5.93 5.92 50 1015.2
20260507173716 65 207 4.3 13.0 0.00 5.93 5.92 53 1015.3
20260507173611 64 308 3.5 13.0 0.00 5.93 5.92 53 1015.3
20260507173514 64 255 3.5 13.0 0.00 5.93 5.92 53 1015.1
20260507173409 64 295 5.2 13.0 0.00 5.93 5.92 52 1015.2
20260507173305 64 342 4.3 13.0 0.00 5.93 5.92 52 1015.2
20260507173212 64 262 5.2 13.0 0.00 5.93 5.92 51 1015.2
20260507173141 64 268 5.2 13.0 0.00 5.93 5.92 51 1015.2
20260507173108 64 210 6.1 13.0 0.00 5.93 5.92 51 1015.2
20260507173034 64 221 4.3 11.3 0.00 5.93 5.92 52 1015.1
20260507172906 65 272 5.2 11.3 0.00 5.93 5.92 50 1015.2
20260507172830 65 269 5.2 11.3 0.00 5.93 5.92 50 1015.2
20260507172725 65 351 5.2 11.3 0.00 5.93 5.92 50 1015.2
20260507172649 65 215 3.5 11.3 0.00 5.93 5.92 52 1015.1
20260507172506 64 321 4.3 11.3 0.00 5.93 5.92 51 1015.2
20260507172430 64 328 5.2 11.3 0.00 5.93 5.92 51 1015.2
20260507172325 64 220 4.3 11.3 0.00 5.93 5.92 51 1015.2
20260507172219 64 248 4.3 10.4 0.00 5.93 5.92 52 1015.3
20260507172113 65 281 5.2 10.4 0.00 5.93 5.92 50 1015.4
20260507172017 65 185 5.2 10.4 0.00 5.93 5.92 50 1015.4
20260507171932 65 230 3.5 8.7 0.00 5.93 5.92 51 1015.4
20260507171834 65 285 3.5 8.7 0.00 5.93 5.92 52 1015.4
20260507171722 65 290 3.5 13.0 0.00 5.93 5.92 52 1015.4
20260507171614 65 240 2.6 13.0 0.00 5.93 5.92 52 1015.4
20260507171540 64 277 1.7 13.0 0.00 5.93 5.92 52 1015.4
20260507171509 65 302 2.6 13.0 0.00 5.93 5.92 52 1015.4
20260507171404 65 11 3.5 13.0 0.00 5.93 5.92 50 1015.4
20260507171308 65 276 4.3 13.0 0.00 5.93 5.92 51 1015.4
20260507171224 65 250 4.3 13.0 0.00 5.93 5.92 51 1015.4
20260507171128 65 238 4.3 13.0 0.00 5.93 5.92 53 1015.4
20260507171006 65 282 5.2 13.0 0.00 5.93 5.92 52 1015.5
20260507170921 64 252 5.2 13.0 0.00 5.93 5.92 52 1015.6
20260507170825 64 203 4.3 13.0 0.00 5.93 5.92 54 1015.6
20260507170719 64 328 3.5 11.3 0.00 5.93 5.92 55 1015.6
20260507170624 63 259 4.3 11.3 0.00 5.93 5.92 54 1015.6
20260507170518 63 243 5.2 11.3 0.00 5.93 5.92 54 1015.6
20260507170413 63 270 4.3 11.3 0.00 5.93 5.92 54 1015.6
20260507170322 63 231 4.3 10.4 0.00 5.93 5.92 54 1015.7
20260507170216 63 277 3.5 10.4 0.00 5.93 5.92 54 1015.8
20260507170132 62 304 2.6 10.4 0.00 5.93 5.92 56 1015.8
20260507170051 62 167 2.6 10.4 0.00 5.93 5.92 54 1015.8
20260507170011 62 162 2.6 10.4 0.00 5.93 5.92 54 1015.8
20260507165904 62 265 4.3 12.2 0.00 5.93 5.92 54 1015.9
20260507165808 62 193 4.3 12.2 0.00 5.93 5.92 55 1015.9
20260507165723 62 207 4.3 12.2 0.00 5.93 5.92 54 1015.9
20260507165631 62 179 3.5 12.2 0.00 5.93 5.92 54 1015.8
20260507165506 62 160 3.5 12.2 0.00 5.93 5.92 54 1015.8
20260507165421 62 183 3.5 12.2 0.00 5.93 5.92 54 1015.9
20260507165325 62 237 2.6 12.2 0.00 5.93 5.92 55 1015.9
20260507165219 62 247 5.2 12.2 0.47 5.93 5.92 55 1015.9
20260507165143 62 241 3.5 12.2 0.47 5.93 5.92 54 1016.0
20260507165036 62 256 0.9 8.7 0.83 5.93 5.92 55 1015.9
20260507164919 63 250 1.7 8.7 0.85 5.93 5.92 54 1015.9
20260507164818 63 280 3.5 8.7 1.11 5.93 5.92 53 1016.0
20260507164713 63 293 3.5 9.6 1.30 5.93 5.92 53 1015.9
20260507164617 63 292 4.3 9.6 1.85 5.93 5.92 53 1015.9
20260507164553 63 257 3.5 9.6 1.85 5.93 5.92 53 1015.9
20260507164512 63 292 4.3 9.6 1.85 5.93 5.92 53 1015.9
20260507164407 63 256 3.5 9.6 1.85 5.93 5.92 55 1015.9
20260507164311 63 226 3.5 9.6 2.03 5.93 5.92 55 1015.9
20260507164226 63 195 4.3 9.6 2.03 5.93 5.92 55 1015.9
20260507164113 63 194 2.6 9.6 2.04 5.93 5.92 54 1015.9
20260507164028 63 285 3.5 9.6 2.05 5.93 5.92 55 1015.9
20260507163911 63 195 4.3 9.6 2.05 5.93 5.92 56 1016.0
20260507163806 62 148 2.6 7.8 2.05 5.93 5.92 56 1016.0
20260507163730 62 285 3.5 7.8 2.05 5.93 5.92 56 1016.0
20260507163625 62 290 5.2 8.7 2.05 5.93 5.92 54 1016.0
20260507163528 62 223 4.3 8.7 2.05 5.93 5.92 55 1016.0
20260507163407 62 110 2.6 8.7 2.07 5.93 5.92 56 1016.0
20260507163321 62 260 3.5 8.7 2.07 5.93 5.92 55 1016.1
20260507163225 62 226 3.5 8.7 2.36 5.93 5.92 55 1016.1
20260507163120 62 277 3.5 8.7 2.38 5.93 5.92 56 1016.1
20260507163040 61 169 2.6 8.7 2.38 5.93 5.92 56 1016.1
20260507163016 62 333 3.5 8.7 2.38 5.93 5.92 55 1016.1
20260507162917 62 195 4.3 8.7 2.38 5.93 5.92 55 1016.1
20260507162810 62 306 4.3 8.7 2.38 5.93 5.92 55 1016.1
20260507162714 62 243 3.5 10.4 2.40 5.93 5.92 54 1016.1
20260507162613 62 223 3.5 10.4 2.40 5.93 5.92 54 1016.2
20260507162507 62 228 3.5 11.3 2.40 5.93 5.92 53 1016.2
20260507162412 62 292 5.2 11.3 2.40 5.93 5.92 54 1016.1
20260507162307 62 272 4.3 11.3 2.40 5.93 5.92 54 1016.2
20260507162231 62 270 4.3 11.3 2.40 5.93 5.92 55 1016.2
20260507162126 62 310 3.5 11.3 2.40 5.93 5.92 55 1016.1
20260507162005 62 345 4.3 11.3 2.40 5.93 5.92 55 1016.2
20260507161928 62 285 5.2 11.3 2.40 5.93 5.92 53 1016.2
20260507161823 62 266 5.2 11.3 2.40 5.93 5.92 53 1016.3
20260507161718 63 240 6.1 11.3 2.40 5.93 5.92 53 1016.1
20260507161625 62 236 4.3 9.6 2.40 5.93 5.92 53 1016.1
20260507161613 63 294 5.2 9.6 2.40 5.93 5.92 53 1016.1
20260507161517 63 277 3.5 13.0 2.40 5.93 5.92 54 1016.1
20260507161412 63 324 3.5 13.0 2.40 5.93 5.92 55 1016.1
20260507161321 63 314 4.3 13.0 2.40 5.93 5.92 55 1016.1
20260507161214 62 187 2.6 13.0 2.40 5.93 5.92 55 1016.1
20260507161108 62 269 2.6 13.0 2.40 5.93 5.92 55 1016.0
20260507161033 62 302 3.5 13.0 2.40 5.93 5.92 55 1016.0
20260507160905 62 240 3.5 13.0 2.40 5.93 5.92 54 1016.1
20260507160829 62 127 5.2 13.0 2.40 5.93 5.92 54 1016.1
20260507160704 62 311 7.0 13.0 2.40 5.93 5.92 55 1016.1
20260507160619 62 278 4.3 13.0 2.40 5.93 5.92 55 1016.1
20260507160508 62 269 1.7 13.0 2.40 5.93 5.92 56 1016.1
20260507160422 62 260 3.5 13.0 2.40 5.93 5.92 56 1016.1
20260507160346 61 181 4.3 13.0 2.40 5.93 5.92 55 1016.1
20260507160248 61 233 3.5 13.0 2.40 5.93 5.92 56 1016.1
20260507160132 61 273 2.6 13.0 2.40 5.93 5.92 54 1016.1
20260507160032 61 313 3.5 13.0 2.40 5.93 5.92 54 1016.1
20260507160012 61 294 4.3 13.0 2.40 5.93 5.92 54 1016.1
20260507155914 62 252 5.2 13.0 2.40 6.06 5.92 54 1016.1
20260507155814 62 37 5.2 12.2 2.40 6.06 5.92 53 1016.2
20260507155738 62 269 6.1 12.2 2.40 6.06 5.92 53 1016.1
20260507155632 62 257 6.1 12.2 2.40 6.06 5.92 53 1016.2
20260507155514 62 281 4.3 11.3 2.40 6.06 5.92 54 1016.1
20260507155409 62 227 4.3 11.3 2.40 6.06 5.92 54 1016.2
20260507155333 62 180 5.2 11.3 2.30 6.05 5.91 53 1016.1
20260507155206 62 122 6.1 11.3 1.83 6.00 5.88 53 1016.2
20260507155130 62 260 5.2 11.3 1.77 6.00 5.86 54 1016.2
20260507155004 62 295 3.5 9.6 1.57 5.98 5.84 56 1016.2
20260507154912 62 347 1.7 8.7 1.55 5.97 5.84 55 1016.2
20260507154807 62 218 0.9 8.7 1.29 5.95 5.81 55 1016.2
20260507154732 62 255 2.6 8.7 0.81 5.90 5.76 55 1016.2
20260507154637 62 96 1.7 8.7 0.55 5.87 5.74 55 1016.2
20260507154624 62 288 2.6 8.7 0.55 5.87 5.74 55 1016.2
20260507154528 62 216 3.5 8.7 0.55 5.87 5.74 54 1016.3
20260507154422 62 263 3.5 8.7 0.55 5.87 5.74 55 1016.3
20260507154317 62 293 2.6 8.7 0.37 5.86 5.72 56 1016.3
20260507154206 62 240 3.5 12.2 0.37 5.86 5.72 55 1016.2
20260507154119 62 233 3.5 12.2 0.36 5.86 5.72 55 1016.3
20260507154024 62 229 3.5 12.2 0.35 5.85 5.72 56 1016.3
20260507153917 61 214 4.3 12.2 0.35 5.85 5.72 56 1016.3
20260507153811 61 267 3.5 12.2 0.35 5.85 5.72 56 1016.3
20260507153714 61 300 3.5 12.2 0.35 5.85 5.72 56 1016.4
20260507153638 61 233 4.3 12.2 0.35 5.85 5.72 56 1016.4
20260507153511 61 245 5.2 12.2 0.35 5.85 5.72 56 1016.4
20260507153440 61 298 4.3 12.2 0.16 5.84 5.70 55 1016.3
20260507153313 61 205 3.5 12.2 0.04 5.82 5.69 56 1016.3
20260507153216 61 270 3.5 12.2 0.03 5.82 5.69 56 1016.4
20260507153122 60 276 4.3 12.2 0.02 5.82 5.68 55 1016.4
20260507153111 61 257 5.2 12.2 0.02 5.82 5.68 55 1016.3
20260507153017 61 298 6.1 12.2 0.02 5.82 5.68 55 1016.4
20260507152911 61 281 5.2 12.2 0.02 5.82 5.68 55 1016.5
20260507152805 61 273 3.5 10.4 0.02 5.82 5.68 56 1016.4
20260507152713 61 262 1.7 10.4 0.00 5.82 5.68 55 1016.4
20260507152607 61 303 0.9 10.4 0.02 5.82 5.68 56 1016.5
20260507152532 61 280 2.6 10.4 0.02 5.82 5.68 55 1016.4
20260507152405 61 279 4.3 10.4 0.02 5.82 5.68 55 1016.5
20260507152329 61 286 5.2 10.4 0.02 5.82 5.68 55 1016.5
20260507152204 61 233 4.3 10.4 0.02 5.82 5.68 55 1016.6
20260507152119 61 271 3.5 10.4 0.02 5.82 5.68 57 1016.6
20260507152023 61 153 2.6 8.7 0.02 5.82 5.68 56 1016.6
20260507151922 61 137 2.6 8.7 0.02 5.82 5.68 57 1016.6
20260507151817 61 236 1.7 8.7 0.02 5.82 5.68 58 1016.5
20260507151722 61 70 1.7 8.7 0.02 5.82 5.68 58 1016.6
20260507151650 60 243 1.7 8.7 0.02 5.82 5.68 58 1016.6
20260507151636 61 309 1.7 8.7 0.02 5.82 5.68 57 1016.5
20260507151519 61 174 1.7 12.2 0.02 5.82 5.68 58 1016.6
20260507151434 60 270 1.7 12.2 0.02 5.82 5.68 58 1016.6
20260507151317 60 248 2.6 12.2 0.02 5.82 5.68 58 1016.7
20260507151216 60 261 1.7 12.2 0.02 5.82 5.68 57 1016.6
20260507151111 60 210 0.9 12.2 0.02 5.82 5.68 58 1016.6
20260507151034 60 236 1.7 12.2 0.02 5.82 5.68 57 1016.7
20260507150937 60 68 3.5 12.2 0.02 5.82 5.68 58 1016.7
20260507150811 60 283 6.1 12.2 0.02 5.82 5.68 56 1016.6
20260507150705 60 285 7.0 12.2 0.02 5.82 5.68 55 1016.7
20260507150609 60 290 4.3 11.3 0.02 5.82 5.68 56 1016.8
20260507150504 60 245 4.3 8.7 0.02 5.82 5.68 58 1016.7
20260507150432 60 274 4.3 8.7 0.02 5.82 5.68 58 1016.7
20260507150307 60 266 3.5 8.7 0.02 5.82 5.68 57 1016.7
20260507150222 60 293 1.7 8.7 0.02 5.82 5.68 58 1016.7
20260507150157 60 305 2.6 8.7 0.02 5.82 5.68 58 1016.7
20260507150024 60 273 2.6 8.7 0.02 5.82 5.68 57 1016.7
20260507145916 60 277 1.7 8.7 0.02 7.11 5.68 58 1016.7
20260507145810 60 291 1.7 11.3 0.02 7.11 5.68 59 1016.7
20260507145718 60 214 0.0 11.3 0.02 7.11 5.68 58 1016.6
20260507145633 60 285 0.0 11.3 0.02 7.11 5.68 59 1016.6
20260507145536 60 288 1.7 11.3 0.02 7.11 5.68 59 1016.6
20260507145439 59 223 1.7 11.3 0.02 7.11 5.68 59 1016.7
20260507145333 59 246 2.6 11.3 0.02 7.11 5.68 58 1016.7
20260507145214 59 274 3.5 11.3 0.02 7.11 5.68 58 1016.8
20260507145109 59 279 4.3 11.3 0.02 7.11 5.68 58 1016.6
20260507145013 60 234 3.5 11.3 0.02 7.11 5.68 58 1016.7
20260507144908 60 257 3.5 8.7 0.02 7.11 5.68 59 1016.7
20260507144807 59 152 4.3 8.7 0.02 7.11 5.68 59 1016.7
20260507144711 60 134 2.6 8.7 0.02 7.11 5.68 59 1016.7
20260507144649 59 211 1.7 8.7 0.02 7.11 5.68 59 1016.7
20260507144604 59 212 0.9 8.7 0.02 7.11 5.68 60 1016.7
20260507144528 59 259 2.6 8.7 0.02 7.11 5.68 60 1016.7
20260507144452 59 223 2.6 9.6 0.02 7.11 5.68 60 1016.7
20260507144306 59 322 0.9 9.6 0.02 7.11 5.68 60 1016.7
20260507144220 59 269 2.6 9.6 0.02 7.11 5.68 60 1016.7
20260507144124 59 283 2.6 9.6 0.02 7.11 5.68 60 1016.7
20260507144039 59 148 1.7 9.6 0.02 7.11 5.68 60 1016.7
20260507143926 59 1 0.0 9.6 0.02 7.11 5.68 62 1016.7
20260507143820 59 276 0.0 9.6 0.02 7.11 5.68 61 1016.7
20260507143722 59 299 1.7 9.6 0.02 7.11 5.68 61 1016.7
20260507143617 59 122 2.6 9.6 0.02 7.11 5.68 61 1016.7
20260507143521 59 231 1.7 9.6 0.02 7.11 5.68 60 1016.7
20260507143416 59 211 0.9 9.6 0.02 7.11 5.68 61 1016.7
20260507143311 59 203 0.9 9.6 0.02 7.11 5.68 62 1016.7
20260507143234 59 285 0.0 9.6 0.02 7.11 5.68 63 1016.7
20260507143134 59 98 0.0 9.6 0.02 7.11 5.68 62 1016.7
20260507143112 59 160 0.9 9.6 0.02 7.11 5.68 62 1016.7
20260507143017 59 105 2.6 9.6 0.02 7.11 5.68 62 1016.7
20260507142910 59 231 2.6 9.6 0.02 7.11 5.68 62 1016.6
20260507142805 59 162 0.9 5.2 0.02 7.11 5.68 62 1016.7
20260507142709 59 214 1.7 5.2 0.05 7.11 5.68 63 1016.7
20260507142604 59 271 0.9 5.2 0.03 7.11 5.68 63 1016.6
20260507142528 59 295 0.0 5.2 0.03 7.11 5.68 64 1016.6
20260507142426 59 178 0.0 7.8 0.03 7.11 5.68 65 1016.7
20260507142350 59 240 0.0 7.8 0.13 7.11 5.68 65 1016.7
20260507142224 58 234 0.9 7.8 0.13 7.11 5.68 65 1016.6
20260507142148 58 347 0.9 7.8 0.13 7.11 5.68 64 1016.7
20260507142021 58 255 0.9 7.8 0.33 7.11 5.68 65 1016.7
20260507141916 58 144 0.9 7.8 0.55 7.11 5.68 66 1016.7
20260507141820 58 32 1.7 7.8 0.63 7.11 5.68 65 1016.7
20260507141719 58 295 3.5 7.8 0.69 7.11 5.68 64 1016.7
20260507141637 57 277 2.6 7.8 0.69 7.11 5.68 64 1016.7
20260507141614 58 210 1.7 7.8 0.76 7.11 5.68 64 1016.7
20260507141518 58 275 0.9 6.1 1.05 7.11 5.68 64 1016.8
20260507141413 58 155 1.7 6.1 1.25 7.11 5.68 65 1016.8
20260507141308 58 277 0.9 6.1 1.50 7.11 5.68 64 1016.8
20260507141212 58 309 1.7 6.1 1.60 7.11 5.68 64 1016.9
20260507141106 58 224 1.7 6.1 1.81 7.11 5.68 64 1016.9
20260507141007 58 214 1.7 6.1 1.81 7.11 5.68 64 1016.9
20260507140930 58 231 1.7 6.1 1.81 7.11 5.68 64 1016.9
20260507140854 58 177 0.9 6.1 2.26 7.11 5.68 65 1016.9
20260507140748 58 162 0.0 5.2 2.45 7.11 5.68 65 1016.9
20260507140515 58 231 0.9 5.2 3.29 7.11 5.68 65 1016.9
20260507140420 58 124 1.7 5.2 3.41 7.11 5.68 66 1016.9
20260507140314 58 218 1.7 5.2 3.41 7.11 5.68 65 1016.9
20260507140213 58 240 0.0 3.5 3.49 7.11 5.68 66 1016.9
20260507140128 58 292 0.0 3.5 3.49 7.11 5.68 66 1016.9
20260507140044 57 149 0.0 3.5 3.62 7.11 5.68 67 1016.9
20260507140006 57 171 0.0 3.5 3.98 7.11 5.68 69 1016.9
20260507135931 57 217 0.0 0.0 3.98 7.11 5.68 69 1016.9
20260507135805 57 305 0.0 0.0 4.50 8.11 5.68 68 1016.9
20260507135720 57 181 0.0 0.0 4.79 8.11 5.68 69 1016.9
20260507135624 57 115 0.0 0.0 4.79 8.11 5.68 69 1016.9
20260507135523 56 224 0.0 0.0 5.03 8.11 5.68 69 1016.9
20260507135417 56 280 0.0 0.0 5.58 8.11 5.68 70 1017.0
20260507135321 56 171 0.0 0.0 5.58 8.11 5.68 70 1016.9
20260507135236 56 227 0.0 0.0 6.17 8.11 5.68 71 1016.9
20260507135119 56 137 0.0 0.0 6.21 8.11 5.68 71 1016.9
20260507135013 55 143 0.0 0.0 6.58 8.11 5.68 71 1016.9
20260507134908 55 228 0.0 1.7 6.96 8.11 5.68 71 1016.9
20260507134817 55 231 0.0 1.7 7.07 8.11 5.68 71 1016.8
20260507134712 55 224 0.0 1.7 7.33 8.11 5.68 72 1016.8
20260507134623 54 135 0.0 1.7 7.33 8.11 5.68 72 1016.8
20260507134607 55 213 0.0 1.7 7.52 8.11 5.68 72 1016.8
20260507134530 55 204 0.0 1.7 7.84 8.11 5.68 71 1016.9
20260507134404 54 244 0.0 1.7 8.11 8.11 5.68 71 1016.9
20260507134308 54 266 0.0 1.7 8.37 8.11 5.68 72 1016.9
20260507134203 54 197 0.0 1.7 8.64 8.11 5.68 72 1016.9
20260507134127 54 240 0.0 1.7 8.64 8.11 5.68 72 1016.9
20260507134005 54 217 0.0 0.0 9.55 8.11 5.68 72 1017.0
20260507133921 54 216 0.0 0.0 1.00 8.11 5.68 73 1017.0
20260507133825 54 153 0.0 0.0 1.00 8.11 5.68 74 1017.0
20260507133720 54 267 0.0 0.0 1.05 8.11 5.68 74 1016.9
20260507133614 53 165 0.0 0.0 1.10 8.11 5.68 73 1017.0
20260507133519 53 255 0.0 0.0 1.12 8.11 5.68 74 1017.0
20260507133417 53 256 0.0 0.0 1.13 8.11 5.68 74 1016.9
20260507133312 53 256 0.0 0.0 1.21 8.11 5.68 73 1016.9
20260507133217 53 281 0.0 0.0 1.28 8.11 5.68 73 1016.9
20260507133111 53 295 0.0 0.0 1.33 8.11 5.68 72 1016.9
20260507133030 53 214 0.0 0.0 1.33 8.11 5.68 72 1016.9
20260507133009 53 256 0.0 0.0 1.40 8.11 5.68 74 1016.9
20260507132911 53 164 0.0 0.0 1.44 8.11 5.68 73 1016.9
20260507132807 53 254 0.0 0.0 1.50 8.11 5.68 74 1016.9
20260507132705 53 271 0.0 0.0 1.51 8.11 5.68 74 1016.9
20260507132609 53 243 0.0 0.0 1.52 8.11 5.68 74 1016.9
20260507132504 52 243 0.0 0.0 1.53 8.11 5.68 74 1016.9
20260507132428 52 124 0.0 0.0 1.52 8.10 5.67 74 1016.9
20260507132343 52 268 0.0 0.0 1.57 8.10 5.67 74 1017.0
20260507132226 52 145 0.0 0.0 1.60 8.10 5.67 75 1017.0
20260507132120 52 172 0.0 0.0 1.64 8.08 5.65 75 1017.0
20260507132019 52 259 0.0 0.0 1.69 8.07 5.64 75 1017.0
20260507131923 52 254 0.0 0.0 1.67 8.06 5.63 75 1017.0
20260507131838 52 281 0.0 0.0 1.69 8.05 5.62 75 1016.9
20260507131720 51 123 0.0 0.0 1.68 8.04 5.61 76 1016.9
20260507131615 51 185 0.0 0.0 1.68 8.04 5.60 76 1017.0
20260507131543 51 294 0.0 0.0 1.65 8.01 5.58 75 1017.0
20260507131510 51 306 0.0 0.0 1.65 8.01 5.58 75 1017.0
20260507131414 51 296 0.0 0.0 1.65 7.99 5.56 75 1017.0
20260507131313 51 165 0.0 0.0 1.62 7.96 5.53 75 1017.0
20260507131208 51 156 0.0 0.0 1.61 7.95 5.52 75 1017.0
20260507131132 51 254 0.0 0.0 1.60 7.93 5.50 75 1017.0
20260507131006 51 78 0.0 0.0 1.58 7.92 5.48 76 1017.1
20260507130911 51 215 0.0 0.0 1.57 7.87 5.44 75 1017.1
20260507130825 51 237 0.0 0.0 1.58 7.85 5.42 76 1017.1
20260507130708 50 162 0.0 0.0 1.59 7.83 5.40 76 1017.1
20260507130603 50 141 0.0 0.9 1.55 7.79 5.38 76 1017.2
20260507130531 50 211 0.0 0.9 1.54 7.78 5.35 77 1017.2
20260507130406 50 202 0.0 0.9 1.53 7.77 5.34 77 1017.2
20260507130322 50 175 0.0 0.9 1.53 7.77 5.34 77 1017.2
20260507130226 50 225 0.0 0.9 1.52 7.76 5.33 77 1017.2
20260507130131 50 203 0.0 0.9 1.51 7.75 5.32 77 1017.2
20260507130022 49 158 0.0 0.9 1.47 7.71 5.28 78 1017.2
20260507130011 50 153 0.0 0.9 1.47 7.71 5.28 78 1017.2
20260507125913 50 123 0.0 0.9 1.44 9.84 5.25 77 1017.3
20260507125812 49 123 0.0 0.9 1.42 9.82 5.23 77 1017.2
20260507125706 49 185 0.0 0.0 1.39 9.79 5.20 77 1017.2
20260507125630 49 231 0.0 0.0 1.39 9.76 5.17 78 1017.3
20260507125504 49 147 0.0 0.0 1.35 9.72 5.13 78 1017.3
20260507125408 49 199 0.0 0.0 1.38 9.70 5.11 78 1017.3
20260507125306 49 207 0.0 0.0 1.37 9.69 5.10 78 1017.3
20260507125227 49 168 0.0 0.0 1.35 9.67 5.08 79 1017.3
20260507125126 48 167 0.0 0.0 1.39 9.63 5.04 79 1017.3
20260507125011 48 166 0.0 0.0 1.42 9.61 5.02 79 1017.3
20260507124904 48 214 0.0 0.0 1.43 9.57 4.98 78 1017.4
20260507124829 48 206 0.0 0.0 1.43 9.56 4.97 78 1017.4
20260507124721 48 167 0.0 0.0 1.41 9.54 4.95 78 1017.3
20260507124646 47 268 0.0 0.0 1.39 9.52 4.93 79 1017.3
20260507124635 48 300 0.0 0.0 1.42 9.51 4.93 79 1017.3
20260507124519 48 271 0.0 0.0 1.43 9.49 4.90 79 1017.3
20260507124412 48 274 0.0 0.0 1.43 9.46 4.87 79 1017.3
20260507124320 48 160 0.0 0.0 1.42 9.43 4.84 79 1017.2
20260507124215 48 163 0.0 0.9 1.41 9.41 4.82 79 1017.2
20260507124110 47 293 0.0 0.9 1.40 9.36 4.77 79 1017.2
20260507124005 47 166 0.0 0.9 1.37 9.30 4.73 79 1017.2
20260507123909 47 292 0.0 0.9 1.33 9.26 4.67 79 1017.1
20260507123804 47 154 0.0 0.9 1.31 9.23 4.64 80 1017.2
20260507123728 47 143 0.0 0.9 1.30 9.22 4.63 80 1017.2
20260507123628 47 181 0.0 0.9 1.28 9.16 4.57 80 1017.1
20260507123551 47 161 0.0 0.9 1.26 9.14 4.55 80 1017.2
20260507123405 47 206 0.0 0.9 1.29 9.14 4.55 80 1017.2
20260507123319 47 187 0.0 0.9 1.23 9.06 4.47 80 1017.2
20260507123223 47 146 0.0 0.0 1.16 8.98 4.44 81 1017.2
20260507123118 47 181 0.0 0.0 1.20 8.94 4.35 81 1017.2
20260507123028 46 174 0.0 0.0 1.18 8.91 4.32 82 1017.2
20260507123015 46 139 0.0 0.0 1.19 8.87 4.28 82 1017.2
20260507122920 46 158 0.0 3.5 1.17 8.83 4.24 82 1017.2
20260507122835 46 151 0.0 3.5 1.09 8.76 4.17 82 1017.2
20260507122715 46 151 0.0 3.5 1.08 8.75 4.16 82 1017.2
20260507122620 46 158 0.0 3.5 1.08 8.74 4.15 82 1017.2
20260507122514 46 159 0.0 3.5 1.09 8.74 4.15 82 1017.2
20260507122428 46 152 0.0 3.5 1.05 8.68 4.09 82 1017.2
20260507122310 46 145 0.0 3.5 1.05 8.65 4.06 82 1017.2
20260507122205 45 167 0.9 3.5 1.01 8.62 4.03 82 1017.2
20260507122104 45 153 0.9 3.5 9.75 8.56 3.97 83 1017.2
20260507122008 45 162 0.0 1.7 9.62 8.54 3.95 83 1017.2
20260507121923 45 207 0.0 1.7 9.61 8.54 3.95 83 1017.2
20260507121827 45 153 0.0 1.7 9.58 8.52 3.93 83 1017.2
20260507121722 45 138 0.0 1.7 9.56 8.51 3.93 83 1017.2
20260507121631 44 188 0.0 1.7 9.56 8.51 3.92 84 1017.2
20260507121617 45 149 0.0 1.7 9.59 8.51 3.92 84 1017.2
20260507121520 45 165 0.0 1.7 9.58 8.51 3.92 84 1017.3
20260507121439 45 172 0.0 1.7 9.41 8.50 3.91 84 1017.3
20260507121322 45 156 0.0 1.7 9.41 8.50 3.91 84 1017.3
20260507121217 44 155 0.0 1.7 9.39 8.49 3.90 84 1017.3
20260507121111 44 170 0.0 0.0 9.49 8.49 3.90 85 1017.3
20260507121016 44 159 0.0 0.0 1.02 8.49 3.90 85 1017.3
20260507120910 44 166 0.0 0.0 1.02 8.45 3.86 85 1017.3
20260507120806 44 138 0.0 0.0 1.05 8.42 3.83 86 1017.3
20260507120714 44 162 0.0 0.0 1.08 8.40 3.81 86 1017.2
20260507120629 44 152 0.0 0.0 1.08 8.40 3.81 86 1017.2
20260507120512 44 140 0.0 0.0 1.08 8.40 3.81 86 1017.2
20260507120406 43 163 0.0 0.0 1.08 8.40 3.81 86 1017.2
20260507120331 43 163 0.0 0.0 1.08 8.40 3.81 86 1017.2
20260507120205 43 173 0.0 0.0 1.09 8.40 3.81 87 1017.2
20260507120141 43 176 0.0 0.0 1.09 8.40 3.81 87 1017.2
20260507120107 42 162 0.0 0.0 1.14 8.40 3.81 87 1017.2
20260507120024 43 176 0.0 0.0 1.14 8.40 3.81 87 1017.2
20260507115917 43 174 0.0 0.0 1.21 9.91 3.81 87 1017.2
20260507115820 43 174 0.0 0.0 1.21 9.91 3.80 88 1017.2
20260507115734 42 158 0.0 0.0 1.21 9.91 3.80 88 1017.2
20260507115618 42 174 0.0 0.0 1.18 9.88 3.78 88 1017.2
20260507115512 42 136 0.0 0.0 1.15 9.85 3.74 88 1017.1
20260507115407 42 205 0.0 0.0 1.14 9.83 3.73 88 1017.1
20260507115316 42 150 0.0 0.0 1.16 9.83 3.73 88 1017.1
20260507115210 42 171 0.0 0.0 1.14 9.78 3.67 88 1017.1
20260507115105 42 147 0.0 0.0 1.11 9.72 3.61 88 1017.1
20260507115007 42 173 0.0 0.0 1.06 9.66 3.56 88 1017.1
20260507114931 42 168 0.0 0.0 1.04 9.64 3.54 88 1017.1
20260507114807 42 167 0.0 0.0 1.03 9.63 3.53 88 1017.1
20260507114720 42 151 0.0 0.0 1.04 9.63 3.53 88 1017.2
20260507114623 42 199 0.0 0.0 1.01 9.60 3.50 88 1017.2
20260507114601 41 158 0.0 0.0 1.00 9.57 3.46 88 1017.2
20260507114523 42 163 0.0 0.0 1.00 9.57 3.46 88 1017.2
20260507114427 42 154 0.0 0.0 9.71 9.54 3.43 88 1017.1
20260507114322 41 181 0.0 0.0 9.94 9.52 3.42 88 1017.1
20260507114217 41 176 0.0 0.0 1.10 9.51 3.40 88 1017.1
20260507114120 41 150 0.0 0.0 1.10 9.47 3.36 88 1017.1
20260507114015 41 162 0.0 0.0 1.11 9.44 3.34 88 1017.1
20260507113910 41 193 0.0 0.0 1.13 9.44 3.34 88 1017.1
20260507113817 41 158 0.0 0.0 1.16 9.42 3.32 88 1017.1
20260507113712 41 162 0.0 0.0 1.19 9.40 3.29 88 1017.1
20260507113636 41 146 0.0 0.0 1.24 9.39 3.29 88 1017.1
20260507113511 41 153 0.0 0.0 1.21 9.36 3.25 88 1017.1
20260507113405 41 139 0.0 0.0 1.23 9.35 3.25 88 1017.1
20260507113329 41 155 0.0 0.0 1.22 9.34 3.23 88 1017.1
20260507113204 41 132 0.0 0.0 1.19 9.26 3.15 87 1017.1
20260507113132 41 132 0.0 0.0 1.17 9.24 3.14 87 1017.1
20260507113103 41 154 0.0 0.0 1.14 9.21 3.10 87 1017.1
20260507113027 41 226 0.0 0.0 1.12 9.19 3.08 87 1017.1
20260507112953 41 158 0.0 1.7 1.11 9.17 3.07 87 1017.1
20260507112825 41 179 0.0 1.7 1.13 9.17 3.07 87 1017.1
20260507112720 41 156 0.0 1.7 1.15 9.17 3.07 87 1017.0
20260507112625 41 156 0.0 1.7 1.15 9.17 3.07 87 1017.0
20260507112520 41 166 0.0 1.7 1.14 9.16 3.05 87 1017.0
20260507112419 41 166 0.0 1.7 1.12 9.14 3.03 87 1016.9
20260507112322 41 166 0.0 1.7 1.10 9.12 3.01 87 1016.9
20260507112217 41 142 0.0 1.7 1.10 9.11 3.01 88 1017.0
20260507112112 41 172 0.0 1.7 1.16 9.10 3.00 87 1016.9
20260507112036 41 164 0.0 0.0 1.22 9.09 2.99 87 1017.0
20260507111911 41 161 0.0 0.0 1.22 9.07 2.97 87 1016.9
20260507111815 41 162 0.0 0.0 1.27 9.07 2.97 87 1017.0
20260507111713 41 164 0.0 0.0 1.31 9.07 2.97 87 1017.0
20260507111636 41 167 0.0 0.0 1.31 9.07 2.96 87 1017.0
20260507111601 41 167 0.0 0.0 1.31 9.07 2.96 87 1017.0
20260507111511 41 159 0.0 0.0 1.31 9.07 2.96 87 1017.0
20260507111405 41 160 0.0 0.0 1.31 9.07 2.96 87 1016.9
20260507111329 41 159 0.0 0.0 1.31 9.07 2.96 87 1016.9
20260507111203 41 158 0.0 0.0 1.31 9.07 2.96 87 1016.9
20260507111127 41 150 0.0 0.0 1.30 9.05 2.95 87 1016.9
20260507111022 41 150 0.0 0.0 1.23 8.98 2.88 87 1016.9
20260507110930 41 144 0.0 0.0 1.16 8.91 2.81 87 1016.9
20260507110804 41 163 0.0 0.0 1.10 8.85 2.75 87 1016.9
20260507110728 41 184 0.0 0.0 1.07 8.83 2.72 87 1016.9
20260507110603 41 173 0.0 0.0 1.07 8.83 2.72 87 1016.9
20260507110519 41 193 0.0 0.0 1.07 8.82 2.72 87 1016.9
20260507110423 41 162 0.0 0.0 1.07 8.82 2.72 87 1016.9
20260507110337 41 162 0.0 0.0 1.07 8.82 2.72 87 1016.9
20260507110220 41 157 0.0 0.0 1.10 8.82 2.72 87 1016.9
20260507110129 41 153 0.0 1.7 1.05 8.76 2.66 87 1016.9
20260507110021 41 160 0.0 1.7 1.02 8.70 2.60 87 1016.9
20260507110008 41 160 0.0 1.7 1.07 8.70 2.60 87 1016.9
20260507105912 41 170 0.0 1.7 1.08 1.00 2.59 87 1016.9
20260507105805 41 170 0.0 1.7 1.09 1.00 2.59 87 1016.9
20260507105729 41 172 0.0 1.7 1.09 1.00 2.59 87 1016.9
20260507105604 41 163 0.0 1.7 1.15 1.00 2.59 87 1016.9
20260507105503 41 162 0.0 1.7 1.15 1.00 2.59 87 1016.9
20260507105405 41 162 0.0 1.7 1.21 1.00 2.59 87 1016.9
20260507105320 41 163 0.0 1.7 1.21 1.00 2.56 87 1016.9
20260507105203 41 210 0.0 0.0 1.17 9.96 2.52 87 1016.9
20260507105128 41 170 0.0 0.0 1.15 9.93 2.50 87 1016.9
20260507105020 41 170 0.0 0.0 1.14 9.93 2.50 87 1016.9
20260507104915 41 155 0.0 0.0 1.14 9.93 2.50 87 1016.9
20260507104840 41 169 0.0 0.0 1.18 9.93 2.50 87 1016.9
20260507104713 41 170 0.0 0.0 1.19 9.90 2.47 87 1016.9
20260507104622 41 171 0.0 0.0 1.19 9.89 2.46 87 1016.9
20260507104542 41 158 0.0 0.0 1.26 9.89 2.46 87 1016.9
20260507104516 41 158 0.0 0.0 1.26 9.89 2.46 87 1016.9
20260507104420 41 158 0.0 0.0 1.23 9.85 2.42 87 1016.9
20260507104315 41 158 0.0 0.0 1.20 9.79 2.36 87 1016.9
20260507104210 41 158 0.0 0.0 1.16 9.73 2.30 87 1016.9
20260507104105 41 158 0.0 0.0 1.16 9.69 2.26 87 1016.9
20260507104009 41 164 0.0 0.0 1.14 9.66 2.22 87 1016.9
20260507103907 41 146 0.0 0.0 1.15 9.61 2.18 87 1016.9
20260507103831 41 139 0.0 0.0 1.12 9.58 2.15 87 1016.9
20260507103705 41 136 0.0 0.0 1.11 9.51 2.08 87 1016.9
20260507103620 41 135 0.0 0.0 1.09 9.48 2.05 87 1016.9
20260507103523 41 135 0.0 0.0 1.08 9.47 2.04 87 1016.9
20260507103416 41 134 0.0 0.0 1.10 9.44 2.01 87 1016.9
20260507103320 41 138 0.0 0.0 1.12 9.44 2.01 87 1016.9
20260507103219 41 147 0.0 0.0 1.10 9.39 1.96 87 1016.9
20260507103125 41 155 0.0 0.0 1.10 9.39 1.96 87 1016.9
20260507103113 41 155 0.0 0.0 1.10 9.39 1.96 87 1016.9
20260507103017 41 177 0.0 0.0 1.09 9.38 1.95 87 1016.9
20260507102940 41 177 0.0 0.0 1.09 9.37 1.94 86 1016.9
20260507102814 41 146 0.0 0.0 1.13 9.36 1.93 86 1017.0
20260507102709 41 146 0.0 0.0 1.14 9.35 1.91 86 1016.9
20260507102613 41 132 0.0 0.0 1.14 9.34 1.91 86 1016.9
20260507102508 41 132 0.0 0.0 1.15 9.34 1.91 86 1016.9
20260507102417 41 132 0.0 0.0 1.17 9.34 1.91 86 1016.9
20260507102311 41 120 0.0 0.0 1.20 9.34 1.91 86 1017.0
20260507102206 41 120 0.0 0.0 1.23 9.30 1.87 86 1017.0
20260507102130 41 120 0.0 0.0 1.19 9.26 1.83 86 1017.0
20260507102025 41 169 0.0 0.0 1.20 9.18 1.75 86 1016.9
20260507101928 41 169 0.0 0.0 1.21 9.18 1.75 86 1016.9
20260507101822 41 154 0.0 0.9 1.15 9.12 1.69 87 1016.9
20260507101711 41 153 0.0 2.6 1.12 9.08 1.65 87 1016.9
20260507101653 41 153 0.0 2.6 1.12 9.08 1.65 87 1016.9
20260507101624 41 158 0.0 2.6 1.12 9.08 1.65 87 1016.9
20260507101508 41 158 0.0 2.6 1.11 9.08 1.65 87 1016.9
20260507101421 41 167 0.0 2.6 1.11 9.08 1.65 87 1016.9
20260507101316 41 172 0.0 2.6 1.11 9.08 1.65 87 1016.9
20260507101220 41 172 0.0 2.6 1.11 9.08 1.65 86 1016.9
20260507101145 41 152 0.0 2.6 1.11 9.08 1.65 87 1016.9
20260507101016 41 152 0.0 2.6 1.12 9.08 1.65 87 1016.9
20260507100921 41 201 0.0 2.6 1.14 9.08 1.65 87 1016.9
20260507100816 41 160 0.0 0.0 1.14 9.08 1.65 87 1016.9
20260507100720 41 140 0.0 0.0 1.15 9.08 1.65 87 1017.0
20260507100615 41 150 0.0 0.0 1.15 9.08 1.64 87 1017.0
20260507100539 41 149 0.0 0.0 1.18 9.08 1.64 86 1017.0
20260507100412 41 149 0.0 0.0 1.19 9.08 1.64 86 1017.0
20260507100308 41 141 0.0 0.0 1.19 9.06 1.63 86 1017.0
20260507100232 41 158 0.0 0.0 1.19 9.06 1.63 86 1017.0
20260507100156 41 158 0.0 0.0 1.17 9.04 1.61 87 1017.1
20260507100122 41 158 0.0 0.0 1.14 9.00 1.60 87 1017.0
20260507100031 41 138 0.0 0.0 1.13 8.98 1.55 87 1017.0
20260507095922 41 192 0.0 0.0 1.14 8.94 1.51 87 1017.0
20260507095816 41 192 0.0 0.0 1.11 1.06 1.48 86 1017.1
20260507095720 41 192 0.0 0.0 1.10 1.06 1.46 86 1017.0
20260507095614 41 151 0.0 0.0 1.08 1.06 1.44 86 1017.0
20260507095508 41 177 0.0 0.0 1.07 1.06 1.43 86 1017.0
20260507095416 41 177 0.0 0.0 1.02 1.05 1.38 86 1017.0
20260507095312 41 198 0.0 0.0 9.94 1.05 1.35 86 1017.1
20260507095235 41 176 0.0 0.0 9.94 1.05 1.35 86 1017.0
20260507095109 41 163 0.0 0.0 9.94 1.05 1.35 86 1017.1
20260507095033 41 163 0.0 0.0 9.94 1.05 1.35 86 1017.0
20260507094906 41 158 0.0 0.0 9.94 1.05 1.35 86 1017.1
20260507094830 41 158 0.0 0.0 9.59 1.04 1.31 86 1017.1
20260507094704 41 169 0.0 0.0 9.13 1.04 1.27 87 1017.1
20260507094603 41 172 0.0 0.0 8.44 1.03 1.20 86 1017.1
20260507094528 41 149 0.0 0.0 8.39 1.03 1.19 87 1017.1
20260507094501 41 149 0.0 0.0 8.39 1.03 1.19 87 1017.1
20260507094422 41 158 0.0 0.0 8.33 1.03 1.19 87 1017.1
20260507094324 41 158 0.0 0.0 8.00 1.03 1.16 87 1017.1
20260507094219 41 158 0.0 0.0 7.82 1.03 1.14 87 1017.1
20260507094113 41 158 0.0 0.0 7.40 1.02 1.09 87 1017.1
20260507094017 41 158 0.0 0.0 7.26 1.02 1.08 87 1017.1
20260507093915 41 162 0.0 0.0 7.13 1.02 1.03 87 1017.1
20260507093810 41 168 0.0 0.0 6.71 1.01 9.89 87 1017.1
20260507093734 41 168 0.0 0.0 6.35 1.01 9.53 87 1017.1
20260507093637 41 153 0.0 0.0 6.34 1.01 9.52 87 1017.1
20260507093510 41 152 0.0 0.0 6.23 1.01 9.41 87 1017.1
20260507093405 41 157 0.0 0.0 5.91 1.00 9.09 87 1017.2
20260507093308 41 158 0.0 0.0 5.69 1.00 8.87 87 1017.2
20260507093223 41 166 0.0 0.0 5.47 1.00 8.65 87 1017.2
20260507093131 41 174 0.0 0.0 5.38 1.00 8.56 87 1017.2
20260507093107 40 174 0.0 0.0 5.37 1.00 8.55 87 1017.2
20260507093005 41 167 0.0 0.0 5.37 1.00 8.55 87 1017.2
20260507092930 41 167 0.0 0.0 5.30 1.00 8.48 87 1017.2
20260507092804 41 165 0.0 0.0 4.62 9.95 7.76 87 1017.2
20260507092719 41 176 0.0 0.0 4.80 9.95 7.76 87 1017.2
20260507092622 41 152 0.0 0.0 4.77 9.95 7.73 87 1017.2
20260507092516 41 152 0.0 0.0 5.28 9.93 7.56 87 1017.2
20260507092420 41 152 0.0 0.0 5.45 9.91 7.36 87 1017.2
20260507092319 41 150 0.0 0.0 5.23 9.88 7.06 87 1017.2
20260507092223 41 150 0.0 0.0 4.58 9.81 6.41 87 1017.2
20260507092117 41 154 0.0 0.0 4.21 9.75 5.79 87 1017.2
20260507092011 41 159 0.0 0.0 3.81 9.71 5.42 87 1017.2
20260507091915 41 159 0.0 0.0 3.81 9.71 5.37 87 1017.2
20260507091810 41 160 0.0 0.0 3.81 9.71 5.37 87 1017.3
20260507091704 41 160 0.0 0.0 3.81 9.71 5.37 87 1017.2
20260507091612 41 159 0.0 0.0 3.81 9.71 5.37 87 1017.2
20260507091552 40 160 0.0 0.0 3.81 9.71 5.37 87 1017.2
20260507091507 41 159 0.0 0.0 3.81 9.71 5.37 87 1017.2
20260507091431 41 160 0.0 0.0 3.81 9.71 5.37 87 1017.2
20260507091306 41 160 0.0 0.0 3.81 9.71 5.37 87 1017.2
20260507091221 41 159 0.0 0.0 3.81 9.71 5.37 87 1017.2
20260507091125 41 160 0.0 0.0 3.96 9.71 5.37 87 1017.2
20260507091003 41 153 0.0 0.0 4.02 9.70 5.26 87 1017.2
20260507090918 41 153 0.0 0.0 3.81 9.68 5.03 87 1017.2
20260507090823 41 151 0.0 0.0 3.81 9.68 5.03 86 1017.2
20260507090717 41 151 0.0 0.0 3.85 9.67 4.99 86 1017.2
20260507090620 41 151 0.0 0.0 3.85 9.67 4.99 86 1017.2
20260507090515 41 150 0.0 0.0 3.58 9.63 4.62 86 1017.2
20260507090409 41 150 0.0 0.0 3.47 9.62 4.52 86 1017.2
20260507090304 41 150 0.0 0.0 3.34 9.61 4.37 86 1017.2
20260507090212 41 150 0.0 0.0 3.33 9.61 4.36 86 1017.2
20260507090134 41 150 0.0 0.0 3.19 9.59 4.22 86 1017.2
20260507090120 41 150 0.0 0.0 3.19 9.59 4.22 86 1017.2
20260507090009 41 150 0.0 0.0 2.69 9.54 3.72 86 1017.2
20260507085922 41 150 0.0 0.0 2.69 9.54 3.72 86 1017.2
20260507085825 41 150 0.0 0.0 2.69 1.12 3.72 86 1017.2
20260507085720 41 150 0.0 0.0 2.57 1.12 3.60 86 1017.2
20260507085614 41 150 0.0 0.0 2.57 1.12 3.60 86 1017.3
20260507085523 41 150 0.0 0.0 2.57 1.12 3.60 86 1017.3
20260507085417 41 150 0.0 0.0 2.58 1.12 3.60 86 1017.3
20260507085312 41 150 0.0 0.0 2.58 1.12 3.60 86 1017.2
20260507085215 41 150 0.0 0.0 2.58 1.12 3.60 86 1017.2
20260507085111 41 150 0.0 0.0 2.58 1.12 3.60 86 1017.2
20260507085014 41 150 0.0 0.0 2.58 1.12 3.60 86 1017.2
20260507084909 41 150 0.0 0.0 2.58 1.12 3.60 86 1017.2
20260507084808 41 150 0.0 0.0 2.58 1.12 3.60 86 1017.2
20260507084712 41 150 0.0 0.0 2.58 1.12 3.60 86 1017.2
20260507084643 41 150 0.0 0.0 2.58 1.12 3.60 86 1017.2
20260507084607 41 150 0.0 0.0 2.58 1.12 3.60 86 1017.2
20260507084532 41 168 0.0 0.0 2.58 1.12 3.60 86 1017.2
20260507084405 41 152 0.0 0.0 2.58 1.12 3.60 86 1017.2
20260507084329 41 151 0.0 0.0 2.58 1.12 3.60 86 1017.2
20260507084223 41 151 0.0 0.0 2.58 1.12 3.60 86 1017.2
20260507084147 41 152 0.0 0.0 2.57 1.12 3.59 86 1017.2
20260507084005 41 167 0.0 0.0 2.52 1.12 3.54 85 1017.3
20260507083920 42 167 0.0 0.0 2.16 1.11 3.18 85 1017.3
20260507083824 42 161 0.0 0.0 2.16 1.11 3.18 85 1017.3
20260507083718 42 161 0.0 0.0 2.16 1.11 3.18 85 1017.3
20260507083622 42 161 0.0 0.0 2.16 1.11 3.18 85 1017.3
20260507083517 42 161 0.0 0.0 2.16 1.11 3.18 85 1017.3
20260507083412 42 161 0.0 0.0 2.16 1.11 3.18 85 1017.3
20260507083320 42 161 0.0 0.0 2.16 1.11 3.18 85 1017.2
20260507083215 41 135 0.0 0.0 2.16 1.11 3.18 85 1017.2
20260507083128 41 135 0.0 0.0 2.16 1.11 3.18 85 1017.2
20260507083110 41 163 0.0 0.0 2.16 1.11 3.18 85 1017.2
20260507083015 41 163 0.0 0.0 2.16 1.11 3.18 85 1017.3
20260507082909 41 174 0.0 0.0 2.16 1.11 3.18 85 1017.3
20260507082804 41 174 0.0 0.0 2.12 1.11 3.14 85 1017.3
20260507082712 41 167 0.0 0.0 1.81 1.11 2.83 85 1017.3
20260507082607 41 167 0.0 0.0 1.33 1.10 2.35 85 1017.3
20260507082531 41 167 0.0 0.0 1.26 1.10 2.28 85 1017.3
20260507082406 42 156 0.0 0.0 0.89 1.10 1.91 85 1017.3
20260507082321 42 157 0.0 0.0 0.81 1.10 1.83 84 1017.3
20260507082204 42 157 0.0 0.0 0.65 1.10 1.67 84 1017.3
20260507082119 42 157 0.0 0.0 0.56 1.10 1.58 84 1017.3
20260507082022 42 157 0.0 0.0 0.54 1.10 1.56 84 1017.3
20260507081919 42 157 0.0 0.0 0.54 1.10 1.56 84 1017.3
20260507081822 42 156 0.0 0.0 0.54 1.10 1.56 84 1017.3
20260507081716 42 157 0.0 0.0 0.54 1.10 1.56 84 1017.3
20260507081634 41 157 0.0 0.0 0.54 1.10 1.56 84 1017.3
20260507081611 42 157 0.0 0.0 0.54 1.10 1.56 84 1017.3
20260507081515 42 157 0.0 0.0 0.54 1.10 1.56 84 1017.3
20260507081410 42 156 0.0 0.0 0.54 1.10 1.56 84 1017.3
20260507081305 42 157 0.0 0.0 0.54 1.10 1.56 84 1017.3
20260507081213 42 157 0.0 0.0 0.24 1.09 1.41 83 1017.3
20260507081108 42 157 0.0 0.0 0.23 1.09 1.25 84 1017.2
20260507081003 42 156 0.0 0.0 0.20 1.09 1.22 84 1017.2
20260507080907 42 156 0.0 0.0 0.20 1.09 1.22 84 1017.2
20260507080822 42 156 0.0 0.0 0.13 1.09 1.15 84 1017.2
20260507080725 42 156 0.0 0.0 0.12 1.09 1.14 84 1017.2
20260507080604 42 164 0.0 0.0 0.02 1.09 1.14 84 1017.2
20260507080518 42 164 0.0 0.0 0.02 1.09 1.04 84 1017.2
20260507080422 42 164 0.0 0.0 0.01 1.09 1.03 84 1017.2
20260507080337 42 164 0.0 0.0 0.01 1.09 1.03 83 1017.2
20260507080220 42 179 0.0 0.0 0.01 1.09 1.03 84 1017.2
20260507080126 42 186 0.0 0.0 0.01 1.09 1.03 84 1017.2
20260507080021 42 186 0.0 0.0 0.01 1.09 1.03 84 1017.2
20260507080005 42 186 0.0 0.0 0.01 1.09 1.03 84 1017.2
20260507075907 42 150 0.0 0.0 0.01 1.26 1.03 84 1017.1
20260507075807 42 168 0.0 0.0 0.01 1.26 1.03 84 1017.2
20260507075730 42 169 0.0 0.0 0.01 1.26 1.03 84 1017.2
20260507075605 42 156 0.0 0.0 0.01 1.26 1.03 84 1017.1
20260507075520 42 155 0.0 0.0 0.00 1.26 1.02 84 1017.1
20260507075423 42 155 0.0 0.0 0.00 1.26 1.02 84 1017.1
20260507075318 42 155 0.0 0.0 0.00 1.26 1.02 84 1017.1
20260507075213 42 141 0.0 0.0 0.00 1.26 1.02 84 1017.1
20260507075122 42 141 0.0 0.0 0.00 1.26 1.02 84 1017.1
20260507075013 42 141 0.0 0.0 0.00 1.26 1.02 84 1017.1
20260507074908 42 141 0.0 0.0 0.00 1.26 1.02 84 1017.1
20260507074812 42 149 0.0 0.0 0.00 1.26 1.02 84 1017.1
20260507074707 42 149 0.0 0.0 0.00 1.26 1.02 84 1017.1
20260507074627 42 148 0.0 0.0 0.00 1.26 1.02 83 1017.1
20260507074602 43 149 0.0 0.0 0.00 1.26 1.02 83 1017.1
20260507074510 43 148 0.0 0.0 0.00 1.26 1.02 83 1017.1
20260507074424 43 159 0.0 0.0 0.00 1.26 1.02 83 1017.1
20260507074327 43 159 0.0 0.0 0.00 1.26 1.02 83 1017.1
20260507074230 43 159 0.0 0.0 0.00 1.26 1.02 83 1017.1
20260507074105 43 159 0.0 0.0 0.00 1.26 1.02 83 1017.2
20260507074021 43 159 0.0 0.0 0.00 1.26 1.02 83 1017.1
20260507073925 43 159 0.0 0.0 0.00 1.26 1.02 83 1017.1
20260507073819 43 159 0.0 0.0 0.00 1.26 1.02 83 1017.2
20260507073717 43 159 0.0 0.0 0.00 1.26 1.02 83 1017.2
20260507073622 43 159 0.0 0.0 0.00 1.26 1.02 83 1017.2
20260507073516 43 170 0.0 0.0 0.00 1.26 1.02 83 1017.3
20260507073411 43 170 0.0 0.0 0.00 1.26 1.02 82 1017.3
20260507073315 43 170 0.0 0.0 0.00 1.26 1.02 82 1017.3
20260507073210 43 179 0.0 0.0 0.00 1.26 1.02 82 1017.3
20260507073134 42 179 0.0 0.0 0.00 1.26 1.02 82 1017.3
20260507073105 43 179 0.0 0.0 0.00 1.26 1.02 82 1017.3
20260507073015 43 179 0.0 0.0 0.00 1.26 1.02 82 1017.3
20260507072908 43 165 0.0 0.0 0.00 1.26 1.02 82 1017.3
20260507072832 43 165 0.0 0.0 0.00 1.26 1.02 82 1017.3
20260507072747 43 165 0.0 0.0 0.00 1.26 1.02 82 1017.3
20260507072515 43 162 0.0 0.0 0.00 1.26 1.02 82 1017.4
20260507072420 43 174 0.0 0.0 0.00 1.26 1.02 82 1017.4
20260507072313 43 135 0.0 0.0 0.00 1.26 1.02 82 1017.3
20260507072212 43 177 0.0 0.0 0.00 1.26 1.02 82 1017.4
20260507072116 43 155 0.0 0.0 0.00 1.26 1.02 82 1017.4
20260507072011 43 155 0.0 0.0 0.00 1.26 1.02 82 1017.4
20260507071906 43 155 0.0 0.0 0.00 1.26 1.02 81 1017.5
20260507071830 43 155 0.0 0.0 0.00 1.26 1.02 81 1017.5
20260507071705 43 160 0.0 0.0 0.00 1.26 1.02 81 1017.5
20260507071633 43 160 0.0 0.0 0.00 1.26 1.02 81 1017.5
20260507071604 43 160 0.0 0.0 0.00 1.26 1.02 81 1017.6
20260507071528 43 160 0.0 0.0 0.00 1.26 1.02 81 1017.6
20260507071432 43 160 0.0 0.0 0.00 1.26 1.02 81 1017.6
20260507071326 43 160 0.0 0.0 0.00 1.26 1.02 81 1017.6
20260507071221 43 160 0.0 0.0 0.00 1.26 1.02 81 1017.7
20260507071127 44 160 0.0 0.0 0.00 1.26 1.02 81 1017.7
20260507071019 44 160 0.0 0.0 0.00 1.26 1.02 80 1017.7
20260507070933 44 165 0.0 0.0 0.00 1.26 1.02 80 1017.7
20260507070820 44 165 0.0 0.0 0.00 1.26 1.02 80 1017.7
20260507070715 44 165 0.0 0.0 0.00 1.26 1.02 80 1017.7
20260507070610 44 165 0.0 0.0 0.00 1.26 1.02 79 1017.7
20260507070514 44 134 0.0 0.0 0.00 1.26 1.02 80 1017.7
20260507070409 44 148 0.0 0.0 0.00 1.26 1.02 79 1017.7
20260507070333 44 148 0.0 0.0 0.00 1.26 1.02 79 1017.7
20260507070227 44 148 0.0 0.0 0.00 1.26 1.02 78 1017.7
20260507070141 44 148 0.0 0.0 0.00 1.26 1.02 79 1017.7
20260507070028 44 149 0.0 0.0 0.00 1.26 1.02 78 1017.7
20260507065904 44 149 0.0 0.0 0.00 1.54 1.02 78 1017.7
20260507065828 44 149 0.0 0.0 0.00 1.54 1.02 78 1017.7
20260507065731 44 149 0.0 0.0 0.00 1.54 1.02 78 1017.7
20260507065605 44 151 0.0 0.0 0.00 1.54 1.02 78 1017.7
20260507065529 44 151 0.0 0.0 0.00 1.54 1.02 78 1017.7
20260507065404 44 151 0.0 0.0 0.00 1.54 1.02 77 1017.8
20260507065319 44 151 0.0 0.0 0.00 1.54 1.02 77 1017.8
20260507065223 44 151 0.0 0.0 0.00 1.54 1.02 77 1017.8
20260507065152 44 151 0.0 0.0 0.00 1.54 1.02 77 1017.8
20260507065025 44 151 0.0 0.0 0.00 1.54 1.02 77 1017.8
20260507064920 45 151 0.0 0.0 0.00 1.54 1.02 77 1017.8
20260507064815 45 151 0.0 0.0 0.00 1.54 1.02 77 1017.9
20260507064719 45 151 0.0 0.0 0.00 1.54 1.02 77 1017.9
20260507064614 45 151 0.0 0.0 0.00 1.54 1.02 77 1017.9
20260507064524 44 151 0.0 0.0 0.00 1.54 1.02 77 1017.9
20260507064509 45 151 0.0 0.0 0.00 1.54 1.02 77 1017.9
20260507064437 45 153 0.0 0.0 0.00 1.54 1.02 77 1017.9
20260507064339 45 152 0.0 0.0 0.00 1.54 1.02 77 1017.8
20260507064243 45 152 0.0 0.0 0.00 1.54 1.02 76 1017.9
20260507064116 45 152 0.0 0.0 0.00 1.54 1.02 76 1017.9
20260507064011 45 152 0.0 0.0 0.00 1.54 1.02 76 1017.8
20260507063906 45 152 0.0 0.0 0.00 1.54 1.02 76 1017.9
20260507063810 45 153 0.0 0.0 0.00 1.54 1.02 76 1017.9
20260507063735 45 153 0.0 0.0 0.00 1.54 1.02 76 1017.9
20260507063610 45 153 0.0 0.0 0.00 1.54 1.02 76 1017.9
20260507063505 45 162 0.0 0.0 0.00 1.54 1.02 76 1017.9
20260507063429 45 162 0.0 0.0 0.00 1.54 1.02 76 1017.9
20260507063324 45 162 0.0 0.0 0.00 1.54 1.02 76 1017.9
20260507063219 45 162 0.0 0.0 0.00 1.54 1.02 76 1017.9
20260507063124 45 162 0.0 0.0 0.00 1.54 1.02 77 1017.9
20260507063104 44 162 0.0 0.0 0.00 1.54 1.02 77 1017.8
20260507063020 45 162 0.0 0.0 0.00 1.54 1.02 76 1017.9
20260507062917 45 162 0.0 0.0 0.00 1.54 1.02 77 1017.9
20260507062821 44 159 0.0 0.0 0.00 1.54 1.02 76 1017.9
20260507062716 44 158 0.0 0.0 0.00 1.54 1.02 76 1017.9
20260507062640 44 173 0.0 0.0 0.00 1.54 1.02 77 1017.9
20260507062513 44 171 0.0 0.0 0.00 1.54 1.02 77 1017.9
20260507062437 44 172 0.0 0.0 0.00 1.54 1.02 77 1017.9
20260507062311 44 172 0.0 0.0 0.00 1.54 1.02 77 1017.9
20260507062210 44 158 0.0 0.0 0.00 1.54 1.02 77 1017.9
20260507062112 44 158 0.0 0.0 0.00 1.54 1.02 77 1017.9
20260507062007 44 158 0.0 0.0 0.01 1.54 1.02 78 1017.9
20260507061911 44 158 0.0 0.0 0.01 1.54 1.02 78 1017.9
20260507061805 44 161 0.0 0.0 0.01 1.54 1.02 78 1017.9
20260507061730 44 161 0.0 0.0 0.01 1.54 1.02 78 1017.9
20260507061606 44 161 0.0 0.0 0.01 1.54 1.02 78 1018.0
20260507061547 44 161 0.0 0.0 0.01 1.54 1.02 78 1017.9
20260507061504 44 161 0.0 0.0 0.01 1.54 1.02 78 1018.0
20260507061428 44 161 0.0 0.0 0.01 1.54 1.02 78 1018.0
20260507061322 44 167 0.0 0.0 0.01 1.54 1.02 78 1018.0
20260507061226 44 167 0.0 0.0 0.01 1.54 1.02 78 1017.9
20260507061120 44 167 0.0 0.0 0.01 1.54 1.02 78 1017.9
20260507061043 44 167 0.0 0.0 0.01 1.54 1.02 78 1017.9
20260507060916 44 167 0.0 0.0 0.06 1.54 1.02 78 1017.9
20260507060821 44 167 0.0 0.0 0.06 1.54 1.02 79 1017.9
20260507060735 44 167 0.0 0.0 0.66 1.54 1.02 79 1017.9
20260507060623 44 167 0.0 0.0 0.66 1.54 1.02 79 1017.9
20260507060518 44 167 0.0 0.0 0.66 1.54 1.02 79 1017.9
20260507060413 44 159 0.0 0.0 0.72 1.54 1.02 79 1017.9
20260507060317 44 159 0.0 0.0 0.73 1.54 1.02 79 1017.9
20260507060147 44 160 0.0 0.0 0.73 1.54 1.02 79 1017.9
20260507060058 44 160 0.0 0.0 0.84 1.54 1.02 79 1017.8
20260507060007 44 160 0.0 0.0 1.02 1.54 1.02 79 1017.8
20260507055904 44 160 0.0 0.0 1.02 1.73 1.02 79 1017.9
20260507055828 44 160 0.0 0.0 1.02 1.73 1.02 79 1017.9
20260507055703 44 160 0.0 0.0 1.07 1.73 1.02 80 1017.9
20260507055619 44 160 0.0 0.0 1.11 1.73 1.02 80 1017.9
20260507055523 44 160 0.0 0.0 1.11 1.73 1.02 79 1017.9
20260507055417 44 160 0.0 0.0 1.11 1.73 1.02 80 1018.0
20260507055312 44 160 0.0 0.0 1.11 1.73 1.02 80 1018.0
20260507055221 44 160 0.0 0.0 1.11 1.73 1.02 79 1018.0
20260507055115 44 160 0.0 0.0 1.11 1.73 1.02 80 1018.0
20260507055010 44 160 0.0 0.0 1.11 1.73 1.02 80 1018.0
20260507054935 44 159 0.0 0.0 1.11 1.73 1.02 81 1018.1
20260507054837 44 175 0.0 0.0 1.11 1.73 1.02 81 1018.1
20260507054731 43 175 0.0 0.0 1.11 1.73 1.02 81 1018.1
20260507054613 43 175 0.0 0.0 1.11 1.73 1.02 81 1018.1
20260507054607 43 175 0.0 0.0 1.11 1.73 1.02 81 1018.1
20260507054508 43 175 0.0 0.0 1.11 1.73 1.02 81 1018.0
20260507054407 43 175 0.0 0.0 1.11 1.73 1.02 81 1018.1
20260507054331 43 175 0.0 0.0 1.11 1.73 1.02 82 1018.1
20260507054204 43 175 0.0 0.0 1.11 1.73 1.02 82 1018.0
20260507054128 43 175 0.0 0.0 1.11 1.73 1.02 82 1018.0
20260507054030 43 175 0.0 0.0 1.11 1.73 1.02 82 1018.1
20260507053905 43 175 0.0 0.0 1.11 1.73 1.02 82 1018.1
20260507053820 43 175 0.0 0.0 1.11 1.73 1.02 82 1018.0
20260507053723 43 175 0.0 0.0 1.11 1.73 1.02 81 1018.0
20260507053621 43 175 0.0 0.0 1.11 1.73 1.02 81 1018.0
20260507053516 43 175 0.0 0.0 1.11 1.73 1.02 81 1018.1
20260507053421 43 179 0.0 0.0 1.11 1.73 1.02 81 1018.1
20260507053315 43 179 0.0 0.0 1.11 1.73 1.02 81 1018.1
20260507053210 43 179 0.0 0.0 1.11 1.73 1.02 81 1018.0
20260507053133 43 179 0.0 0.0 1.11 1.73 1.02 81 1018.0
20260507053029 42 179 0.0 0.0 1.11 1.73 1.02 81 1017.9
20260507053010 43 179 0.0 0.0 1.11 1.73 1.02 81 1018.0
20260507052916 43 179 0.0 0.0 1.11 1.73 1.02 81 1018.0
20260507052811 43 179 0.0 0.0 1.11 1.73 1.02 81 1018.0
20260507052706 43 179 0.0 0.0 1.11 1.73 1.02 81 1018.0
20260507052609 43 179 0.0 0.0 1.11 1.73 1.02 81 1018.0
20260507052504 43 179 0.0 0.0 1.11 1.73 1.02 81 1018.0
20260507052429 43 179 0.0 0.0 1.11 1.73 1.02 81 1018.0
20260507052323 43 179 0.0 0.0 1.11 1.73 1.02 81 1018.0
20260507052230 43 179 0.0 0.0 1.11 1.73 1.02 80 1018.0
20260507052105 43 179 0.0 0.0 1.11 1.73 1.02 80 1017.9
20260507052020 43 179 0.0 0.0 1.10 1.73 1.01 80 1017.9
20260507051925 43 179 0.0 0.0 1.10 1.73 1.01 80 1017.9
20260507051819 43 179 0.0 0.0 1.10 1.73 1.01 81 1017.9
20260507051714 43 165 0.0 0.0 1.10 1.73 1.01 81 1017.9
20260507051618 43 165 0.0 0.0 1.10 1.73 1.01 81 1017.9
20260507051555 42 165 0.0 0.0 1.10 1.73 1.01 81 1017.9
20260507051537 42 165 0.0 0.0 1.10 1.73 1.01 81 1018.0
20260507051440 42 165 0.0 0.0 1.10 1.73 1.01 81 1018.0
20260507051314 42 165 0.0 0.0 1.10 1.73 1.01 81 1018.1
20260507051218 42 165 0.0 0.0 1.10 1.73 1.01 82 1018.0
20260507051113 42 167 0.0 0.0 1.10 1.73 1.01 82 1018.0
20260507051008 42 167 0.0 0.0 1.10 1.73 1.01 82 1018.0
20260507050932 42 167 0.0 0.0 1.05 1.73 0.96 82 1018.0
20260507050835 42 167 0.0 0.0 0.60 1.72 0.51 82 1018.0
20260507050713 42 167 0.0 0.0 0.45 1.72 0.36 81 1018.0
20260507050608 42 167 0.0 0.0 0.45 1.72 0.36 81 1018.0
20260507050512 42 167 0.0 0.0 0.45 1.72 0.36 81 1018.0
20260507050407 42 167 0.0 0.0 0.39 1.72 0.30 81 1018.0
20260507050331 42 167 0.0 0.0 0.39 1.72 0.30 82 1018.0
20260507050246 42 167 0.0 0.0 0.38 1.72 0.29 82 1018.0
20260507050159 42 167 0.0 0.0 0.27 1.72 0.18 82 1018.0
20260507050025 42 167 0.0 0.0 0.09 1.72 0.00 82 1018.0
20260507045926 42 214 0.0 0.0 0.09 1.72 0.00 82 1018.0
20260507045803 42 214 0.0 0.0 0.05 1.96 1.72 82 1018.0
20260507045718 42 214 0.0 0.0 0.04 1.96 1.72 81 1018.1
20260507045622 42 214 0.0 0.0 0.00 1.96 1.72 80 1018.0
20260507045517 42 214 0.0 0.0 0.00 1.96 1.72 80 1018.1
20260507045412 42 310 0.0 0.0 0.00 1.96 1.72 79 1018.0
20260507045314 42 309 0.0 0.0 0.00 1.96 1.72 79 1018.0
20260507045138 42 310 0.0 0.0 0.00 1.96 1.72 79 1018.1
20260507045011 42 310 0.0 0.0 0.00 1.96 1.72 79 1018.1
20260507044906 43 310 0.0 0.0 0.00 1.96 1.72 78 1018.0
20260507044810 43 310 0.0 0.0 0.00 1.96 1.72 78 1018.1
20260507044704 43 309 0.0 0.0 0.00 1.96 1.72 78 1018.0
20260507044628 42 310 0.0 0.0 0.00 1.96 1.72 78 1018.0
20260507044618 43 310 0.0 0.0 0.00 1.96 1.72 78 1018.0
20260507044522 43 310 0.0 0.0 0.00 1.96 1.72 78 1018.0
20260507044416 43 310 0.0 0.0 0.00 1.96 1.72 77 1018.0
20260507044305 43 310 0.0 0.0 0.00 1.96 1.72 77 1018.1
20260507044218 43 310 0.0 0.0 0.00 1.96 1.72 76 1018.0
20260507044113 43 310 0.0 0.0 0.00 1.96 1.72 76 1018.0
20260507044017 43 310 0.0 0.0 0.00 1.96 1.72 76 1018.0
20260507043911 43 309 0.0 0.0 0.00 1.96 1.72 75 1018.0
20260507043835 43 309 0.0 0.0 0.00 1.96 1.72 74 1018.0
20260507043709 43 310 0.0 0.0 0.00 1.96 1.72 73 1018.0
20260507043608 43 309 0.0 0.0 0.00 1.96 1.72 73 1018.0
20260507043511 43 310 0.0 0.0 0.00 1.96 1.72 74 1018.0
20260507043406 43 310 0.0 0.0 0.00 1.96 1.72 74 1018.0
20260507043330 43 310 0.0 0.0 0.00 1.96 1.72 74 1018.0
20260507043205 43 310 0.0 0.0 0.00 1.96 1.72 75 1017.9
20260507043135 42 310 0.0 0.0 0.00 1.96 1.72 75 1017.9
20260507043120 43 310 0.0 0.0 0.00 1.96 1.72 75 1017.9
20260507043025 43 309 0.0 0.0 0.00 1.96 1.72 75 1017.9
20260507042902 43 309 0.0 0.0 0.00 1.96 1.72 76 1017.9
20260507042818 43 310 0.0 0.0 0.00 1.96 1.72 76 1017.9
20260507042722 43 310 0.0 0.0 0.00 1.96 1.72 76 1017.9
20260507042617 43 309 0.0 0.0 0.00 1.96 1.72 77 1017.9
20260507042512 43 310 0.0 0.0 0.00 1.96 1.72 77 1018.0
20260507042415 43 310 0.0 0.0 0.00 1.96 1.72 78 1018.0
20260507042310 43 310 0.0 0.0 0.00 1.96 1.72 79 1018.0
20260507042218 43 309 0.0 0.0 0.00 1.96 1.72 79 1018.0
20260507042112 43 310 0.0 0.0 0.00 1.96 1.72 79 1018.0
20260507042008 43 309 0.0 0.0 0.00 1.96 1.72 80 1018.0
20260507041911 43 309 0.0 0.0 0.00 1.96 1.72 80 1018.0
20260507041826 43 309 0.0 0.0 0.00 1.96 1.72 80 1018.0
20260507041709 43 310 0.0 0.0 0.00 1.96 1.72 80 1018.0
20260507041642 42 310 0.0 0.0 0.00 1.96 1.72 80 1017.9
20260507041623 43 310 0.0 0.0 0.00 1.96 1.72 80 1018.0
20260507041527 43 310 0.0 0.0 0.00 1.96 1.72 79 1018.0
20260507041405 43 310 0.0 0.0 0.00 1.96 1.72 79 1018.1
20260507041309 43 310 0.0 0.0 0.00 1.96 1.72 79 1018.1
20260507041203 43 310 0.0 0.0 0.00 1.96 1.72 78 1018.2
20260507041128 43 309 0.0 0.0 0.00 1.96 1.72 78 1018.2
20260507041042 43 310 0.0 0.0 0.00 1.96 1.72 78 1018.2
20260507040925 43 310 0.0 0.0 0.00 1.96 1.72 78 1018.2
20260507040820 43 310 0.0 0.0 0.00 1.96 1.72 77 1018.2
20260507040718 43 310 0.0 0.0 0.00 1.96 1.72 76 1018.2
20260507040623 43 310 0.0 0.0 0.00 1.96 1.72 76 1018.2
20260507040518 44 310 0.0 0.0 0.00 1.96 1.72 76 1018.2
20260507040413 44 309 0.0 0.0 0.00 1.96 1.72 76 1018.2
20260507040317 44 310 0.0 0.0 0.00 1.96 1.72 75 1018.3
20260507040212 44 310 0.0 0.0 0.00 1.96 1.72 75 1018.3
20260507040127 44 310 0.0 0.0 0.00 1.96 1.72 75 1018.3
20260507040050 43 310 0.0 0.0 0.00 1.96 1.72 75 1018.3
20260507040012 44 309 0.0 0.0 0.00 1.96 1.72 74 1018.3
20260507035904 44 309 0.0 0.0 0.00 2.16 1.72 74 1018.3
20260507035808 44 310 0.0 0.0 0.00 2.16 1.72 74 1018.3
20260507035723 44 310 0.0 0.0 0.00 2.16 1.72 74 1018.3
20260507035606 44 310 0.0 0.0 0.00 2.16 1.72 74 1018.3
20260507035521 44 310 0.0 0.0 0.00 2.16 1.72 72 1018.3
20260507035426 44 310 0.0 0.0 0.00 2.16 1.72 71 1018.3
20260507035324 44 310 0.0 0.0 0.00 2.16 1.72 70 1018.3
20260507035228 44 310 0.0 0.0 0.00 2.16 1.72 69 1018.3
20260507035102 45 310 0.0 0.0 0.00 2.16 1.72 68 1018.3
20260507035017 45 310 0.0 0.0 0.00 2.16 1.72 67 1018.3
20260507034918 45 310 0.0 0.0 0.00 2.16 1.72 67 1018.3
20260507034810 45 310 0.0 0.0 0.00 2.16 1.72 67 1018.3
20260507034705 45 310 0.0 0.0 0.00 2.16 1.72 66 1018.3
20260507034614 45 310 0.0 0.0 0.00 2.16 1.72 66 1018.2
20260507034558 44 310 0.0 0.0 0.00 2.16 1.72 66 1018.2
20260507034507 45 310 0.0 0.0 0.00 2.16 1.72 64 1018.2
20260507034410 45 310 0.0 0.0 0.00 2.16 1.72 64 1018.2
20260507034305 45 310 0.0 0.0 0.00 2.16 1.72 63 1018.2
20260507034230 45 310 0.0 0.0 0.00 2.16 1.72 63 1018.2
20260507034124 45 310 0.0 0.0 0.00 2.16 1.72 63 1018.2
20260507034018 45 309 0.0 0.0 0.00 2.16 1.72 63 1018.2
20260507033913 45 310 0.0 0.0 0.00 2.16 1.72 64 1018.1
20260507033802 45 310 0.0 0.0 0.00 2.16 1.72 64 1018.1
20260507033716 45 310 0.0 0.0 0.00 2.16 1.72 65 1018.1
20260507033621 45 310 0.0 0.0 0.00 2.16 1.72 64 1018.1
20260507033514 45 310 0.0 0.0 0.00 2.16 1.72 63 1018.1
20260507033409 45 309 0.0 0.0 0.00 2.16 1.72 62 1018.1
20260507033304 45 310 0.0 0.0 0.00 2.16 1.72 62 1018.1
20260507033212 45 309 0.0 0.0 0.00 2.16 1.72 62 1018.1
20260507033107 45 310 0.0 0.0 0.00 2.16 1.72 62 1018.1
20260507033020 45 310 0.0 0.0 0.00 2.16 1.72 62 1018.1
20260507033005 45 310 0.0 0.0 0.00 2.16 1.72 62 1018.1
20260507032907 45 310 0.0 0.0 0.00 2.16 1.72 62 1018.0
20260507032802 45 310 0.0 0.0 0.00 2.16 1.72 64 1018.0
20260507032727 45 309 0.0 0.0 0.00 2.16 1.72 64 1018.0
20260507032621 45 310 0.0 0.0 0.00 2.16 1.72 65 1018.0
20260507032530 46 310 0.0 0.0 0.00 2.16 1.72 64 1018.0
20260507032425 46 310 0.0 0.0 0.00 2.16 1.72 64 1018.1
20260507032319 46 310 0.0 0.0 0.00 2.16 1.72 64 1018.1
20260507032225 46 310 0.0 0.0 0.00 2.16 1.72 64 1018.1
20260507032138 46 309 0.0 0.0 0.00 2.16 1.72 65 1018.1
20260507032041 46 310 0.0 0.0 0.00 2.16 1.72 62 1018.1
20260507031915 46 310 0.0 0.0 0.00 2.16 1.72 60 1018.1
20260507031810 46 310 0.0 0.0 0.00 2.16 1.72 59 1018.1
20260507031718 46 310 0.0 0.0 0.00 2.16 1.72 58 1018.1
20260507031641 46 310 0.0 0.0 0.00 2.16 1.72 59 1018.1
20260507031613 46 310 0.0 0.0 0.00 2.16 1.72 59 1018.1
20260507031518 46 310 0.0 0.0 0.00 2.16 1.72 58 1018.1
20260507031412 47 310 0.0 0.0 0.00 2.16 1.72 57 1018.1
20260507031307 46 310 0.0 0.0 0.00 2.16 1.72 57 1018.1
20260507031231 46 310 0.0 0.0 0.00 2.16 1.72 56 1018.1
20260507031125 46 310 0.0 0.0 0.00 2.16 1.72 56 1018.1
20260507031011 46 310 0.0 0.0 0.00 2.16 1.72 56 1018.1
20260507030906 46 310 0.0 0.0 0.00 2.16 1.72 55 1018.1
20260507030812 46 310 0.0 0.0 0.00 2.16 1.72 56 1018.1
20260507030705 46 310 0.0 0.0 0.00 2.16 1.72 56 1018.2
20260507030620 46 310 0.0 0.0 0.00 2.16 1.72 57 1018.2
20260507030523 46 310 0.0 0.0 0.00 2.16 1.72 58 1018.2
20260507030418 46 310 0.0 0.0 0.00 2.16 1.72 58 1018.1
20260507030317 46 310 0.0 0.0 0.00 2.16 1.72 60 1018.2
20260507030222 46 310 0.0 0.0 0.00 2.16 1.72 59 1018.1
20260507030158 46 310 0.0 0.0 0.00 2.16 1.72 60 1018.1
20260507030055 45 310 0.0 0.0 0.00 2.16 1.72 63 1018.1
20260507030017 46 309 0.0 0.0 0.00 2.16 1.72 63 1018.1
20260507025910 46 310 0.0 0.0 0.00 2.43 1.72 62 1018.1
20260507025814 46 310 0.0 0.0 0.00 2.43 1.72 64 1018.1
20260507025709 46 310 0.0 0.0 0.00 2.43 1.72 63 1018.2
20260507025608 46 310 0.0 0.0 0.00 2.43 1.72 62 1018.1
20260507025533 46 310 0.0 0.0 0.00 2.43 1.72 63 1018.1
20260507025406 46 310 0.0 0.0 0.00 2.43 1.72 62 1018.1
20260507025310 46 310 0.0 0.0 0.00 2.43 1.72 60 1018.1
20260507025205 46 310 0.0 0.0 0.00 2.43 1.72 61 1018.1
20260507025129 46 310 0.0 0.0 0.00 2.43 1.72 61 1018.1
20260507025005 46 309 0.0 0.0 0.00 2.43 1.72 62 1018.1
20260507024904 46 309 0.0 0.0 0.00 2.43 1.72 61 1018.1
20260507024828 46 310 0.0 0.0 0.00 2.43 1.72 61 1018.1
20260507024703 46 310 0.0 0.0 0.00 2.43 1.72 62 1018.0
20260507024638 45 309 0.0 0.0 0.00 2.43 1.72 62 1018.0
20260507024618 46 310 0.0 0.0 0.00 2.43 1.72 64 1018.0
20260507024522 46 310 0.0 0.0 0.00 2.43 1.72 67 1018.0
20260507024417 46 310 0.0 0.0 0.00 2.43 1.72 68 1018.0
20260507024311 46 310 0.0 0.0 0.00 2.43 1.72 67 1018.0
20260507024235 46 310 0.0 0.0 0.00 2.43 1.72 66 1018.0
20260507024113 46 309 0.0 0.0 0.00 2.43 1.72 65 1018.0
20260507024017 46 310 0.0 0.0 0.00 2.43 1.72 64 1017.9
20260507023912 47 310 0.0 0.0 0.00 2.43 1.72 64 1017.9
20260507023807 47 309 0.0 0.0 0.00 2.43 1.72 63 1017.9
20260507023711 47 310 0.0 0.0 0.00 2.43 1.72 62 1017.9
20260507023605 47 310 0.0 0.0 0.00 2.43 1.72 62 1017.9
20260507023504 47 310 0.0 0.0 0.00 2.43 1.72 61 1017.9
20260507023407 47 310 0.0 0.0 0.00 2.43 1.72 59 1017.9
20260507023302 47 310 0.0 0.0 0.00 2.43 1.72 55 1017.9
20260507023226 47 310 0.0 0.0 0.00 2.43 1.72 55 1017.9
20260507023121 47 310 0.0 0.0 0.00 2.43 1.72 56 1017.9
20260507023042 46 310 0.0 0.0 0.00 2.43 1.72 56 1017.8
20260507023018 47 310 0.0 0.0 0.00 2.43 1.72 56 1017.8
20260507022920 47 309 0.0 0.0 0.00 2.43 1.72 56 1017.9
20260507022819 47 310 0.0 0.0 0.00 2.43 1.72 58 1017.9
20260507022714 47 310 0.0 0.0 0.00 2.43 1.72 58 1017.9
20260507022638 47 310 0.0 0.0 0.00 2.43 1.72 57 1017.8
20260507022511 47 310 0.0 0.0 0.00 2.43 1.72 57 1017.8
20260507022415 47 309 0.0 0.0 0.00 2.43 1.72 57 1017.8
20260507022309 47 309 0.0 0.0 0.00 2.43 1.72 58 1017.8
20260507022205 47 310 0.0 0.0 0.00 2.43 1.72 60 1017.8
20260507022113 47 310 0.0 0.0 0.00 2.43 1.72 60 1017.8
20260507022008 47 310 0.0 0.0 0.00 2.43 1.72 61 1017.8
20260507021903 47 309 0.0 0.0 0.00 2.43 1.72 62 1017.8
20260507021806 47 310 0.0 0.0 0.00 2.43 1.72 62 1017.8
20260507021730 47 310 0.0 0.0 0.00 2.43 1.72 62 1017.8
20260507021624 47 310 0.0 0.0 0.00 2.43 1.72 58 1017.8
20260507021548 47 310 0.0 0.0 0.00 2.43 1.72 58 1017.8
20260507021519 47 310 0.0 0.0 0.00 2.43 1.72 58 1017.8
20260507021414 47 310 0.0 0.0 0.00 2.43 1.72 58 1017.8
20260507021303 47 310 0.0 0.0 0.00 2.43 1.72 59 1017.7
20260507021216 47 309 0.0 0.0 0.00 2.43 1.72 59 1017.7
20260507021122 47 309 0.0 0.0 0.00 2.43 1.72 59 1017.8
20260507021013 47 310 0.0 0.0 0.00 2.43 1.72 61 1017.7
20260507020908 47 310 0.0 0.0 0.00 2.43 1.72 60 1017.7
20260507020812 47 310 0.0 0.0 0.00 2.43 1.72 60 1017.7
20260507020707 47 310 0.0 0.0 0.00 2.43 1.72 60 1017.6
20260507020605 48 310 0.0 0.0 0.00 2.43 1.72 61 1017.6
20260507020509 48 310 0.0 0.0 0.00 2.43 1.72 62 1017.6
20260507020424 48 310 0.0 0.0 0.00 2.43 1.72 63 1017.6
20260507020307 48 309 0.0 0.0 0.00 2.43 1.72 63 1017.6
20260507020223 48 310 0.0 0.0 0.00 2.43 1.72 63 1017.6
20260507020137 48 310 0.0 0.0 0.00 2.43 1.72 62 1017.6
20260507020026 48 309 0.0 0.0 0.00 2.43 1.72 62 1017.6
20260507015903 49 310 0.0 0.0 0.00 2.67 1.72 61 1017.6
20260507015818 49 310 0.0 0.0 0.00 2.67 1.72 61 1017.7
20260507015723 49 310 0.0 0.0 0.00 2.67 1.72 60 1017.6
20260507015618 49 310 0.0 0.0 0.00 2.67 1.72 61 1017.7
20260507015512 49 310 0.0 0.0 0.00 2.67 1.72 61 1017.6
20260507015416 49 310 0.0 0.0 0.00 2.67 1.72 58 1017.6
20260507015311 49 310 0.0 0.0 0.00 2.67 1.72 54 1017.6
20260507015215 49 310 0.0 0.0 0.00 2.67 1.72 53 1017.6
20260507015113 49 310 0.0 0.0 0.00 2.67 1.72 55 1017.5
20260507015008 49 310 0.0 0.0 0.00 2.67 1.72 53 1017.5
20260507014913 49 310 0.0 0.0 0.00 2.67 1.72 53 1017.6
20260507014807 49 309 0.0 0.0 0.00 2.67 1.72 54 1017.6
20260507014702 49 310 0.0 0.0 0.00 2.67 1.72 53 1017.6
20260507014626 49 310 0.0 0.0 0.00 2.67 1.72 51 1017.5
20260507014530 49 309 0.0 0.0 0.00 2.67 1.72 51 1017.5
20260507014507 49 310 0.0 0.0 0.00 2.67 1.72 51 1017.5
20260507014408 50 310 0.0 0.0 0.00 2.67 1.72 51 1017.6
20260507014323 50 310 0.0 0.0 0.00 2.67 1.72 52 1017.5
20260507014227 50 309 0.0 0.0 0.00 2.67 1.72 52 1017.5
20260507014150 50 310 0.0 0.0 0.00 2.67 1.72 52 1017.5
20260507014023 50 309 0.0 0.0 0.00 2.67 1.72 53 1017.5
20260507013926 50 310 0.0 0.0 0.00 2.67 1.72 53 1017.5
20260507013821 50 310 0.0 0.0 0.00 2.67 1.72 53 1017.5
20260507013716 50 309 0.0 0.0 0.00 2.67 1.72 52 1017.5
20260507013625 51 310 0.0 0.0 0.00 2.67 1.72 52 1017.5
20260507013520 51 310 0.0 0.0 0.00 2.67 1.72 52 1017.5
20260507013414 51 309 0.0 0.0 0.00 2.67 1.72 50 1017.4
20260507013339 51 310 0.0 0.0 0.00 2.67 1.72 50 1017.4
20260507013212 51 310 0.0 0.0 0.00 2.67 1.72 50 1017.4
20260507013136 51 310 0.0 0.0 0.00 2.67 1.72 51 1017.4
20260507013031 51 310 0.0 0.0 0.00 2.67 1.72 52 1017.4
20260507013012 52 310 0.0 0.0 0.00 2.67 1.72 53 1017.4
20260507012914 52 310 0.0 0.0 0.00 2.67 1.72 52 1017.4
20260507012813 52 310 0.0 0.0 0.00 2.67 1.72 50 1017.3
20260507012737 52 309 0.0 0.0 0.00 2.67 1.72 50 1017.3
20260507012612 52 310 0.0 0.0 0.00 2.67 1.72 50 1017.3
20260507012506 53 310 0.0 0.0 0.00 2.67 1.72 50 1017.3
20260507012410 53 310 0.0 0.0 0.00 2.67 1.72 50 1017.3
20260507012306 53 310 0.0 0.0 0.00 2.67 1.72 50 1017.3
20260507012230 53 310 0.0 0.0 0.00 2.67 1.72 49 1017.3
20260507012128 54 310 0.0 0.0 0.00 2.67 1.72 50 1017.2
20260507012002 54 310 0.0 0.0 0.00 2.67 1.72 49 1017.2
20260507011906 54 309 0.0 0.0 0.00 2.67 1.72 49 1017.2
20260507011821 54 310 0.0 0.0 0.00 2.67 1.72 48 1017.3
20260507011725 55 310 0.0 0.0 0.00 2.67 1.72 49 1017.3
20260507011621 55 310 0.0 0.0 0.00 2.67 1.72 50 1017.2
20260507011541 54 309 0.0 0.0 0.00 2.67 1.72 51 1017.2
20260507011515 55 309 0.0 0.0 0.00 2.67 1.72 51 1017.2
20260507011424 55 309 0.0 0.0 0.00 2.67 1.72 50 1017.2
20260507011318 56 310 0.0 0.0 0.00 2.67 1.72 49 1017.2
20260507011213 56 310 0.0 0.0 0.00 2.67 1.72 46 1017.2
20260507011118 56 310 0.0 0.0 0.00 2.67 1.72 47 1017.2
20260507011012 56 310 0.0 0.0 0.00 2.67 1.72 47 1017.2
20260507010812 56 310 0.0 0.0 0.00 2.67 1.72 44 1017.2
20260507010730 57 309 0.0 0.0 0.00 2.67 1.72 43 1017.2
20260507010613 57 310 0.0 0.0 0.00 2.67 1.72 43 1017.2
20260507010508 57 310 0.0 0.0 0.00 2.67 1.72 43 1017.1
20260507010403 57 310 0.0 0.0 0.00 2.67 1.72 38 1017.1
20260507010307 57 309 0.0 0.0 0.00 2.67 1.72 38 1017.1
20260507010202 57 288 0.0 0.0 0.00 2.67 1.72 38 1017.2
20260507010137 57 288 0.0 0.0 0.00 2.67 1.72 38 1017.2
20260507010050 57 284 0.0 0.0 0.00 2.67 1.72 39 1017.1
20260507010021 57 348 0.0 0.0 0.00 2.67 1.72 38 1017.2
20260507005914 58 25 0.0 0.0 0.00 2.85 1.72 38 1017.1
20260507005818 58 33 0.0 0.0 0.00 2.85 1.72 37 1017.1
20260507005713 58 33 0.0 0.0 0.00 2.85 1.72 37 1017.1
20260507005608 58 33 0.0 4.3 0.00 2.85 1.72 37 1017.1
20260507005512 58 67 0.0 4.3 0.00 2.85 1.72 36 1017.1
20260507005407 58 68 0.0 4.3 0.00 2.85 1.72 37 1017.1
20260507005335 58 45 0.0 4.3 0.00 2.85 1.72 36 1017.1
20260507005209 58 283 0.0 4.3 0.00 2.85 1.72 36 1017.1
20260507005104 59 269 0.0 4.3 0.00 2.85 1.72 36 1017.1
20260507005008 59 269 0.0 4.3 0.00 2.85 1.72 35 1017.1
20260507004903 59 263 0.9 4.3 0.00 2.85 1.72 35 1017.1
20260507004827 59 331 0.9 4.3 0.00 2.85 1.72 35 1017.1
20260507004702 59 290 0.0 3.5 0.00 2.85 1.72 35 1017.1
20260507004638 59 309 0.0 3.5 0.00 2.85 1.72 35 1017.1
20260507004621 59 312 0.0 3.5 0.00 2.85 1.72 35 1017.0
20260507004526 59 348 0.0 3.5 0.00 2.85 1.72 35 1017.0
20260507004420 60 347 0.0 3.5 0.00 2.85 1.72 34 1017.1
20260507004314 60 94 0.9 3.5 0.00 2.85 1.72 34 1017.1
20260507004218 60 321 0.9 3.5 0.00 2.85 1.72 34 1017.1
20260507004132 60 313 0.0 0.9 0.00 2.85 1.72 35 1017.1
20260507004015 60 3 0.0 2.6 0.00 2.85 1.72 35 1017.0
20260507003914 60 40 0.0 2.6 0.00 2.85 1.72 34 1017.1
20260507003809 60 84 0.0 2.6 0.00 2.85 1.72 35 1017.1
20260507003713 60 13 0.0 2.6 0.00 2.85 1.72 35 1017.1
20260507003608 60 320 0.0 2.6 0.00 2.85 1.72 35 1017.1
20260507003503 60 320 0.0 2.6 0.00 2.85 1.72 35 1017.1
20260507003407 60 320 0.0 2.6 0.00 2.85 1.72 35 1017.1
20260507003302 60 320 0.9 2.6 0.00 2.85 1.72 34 1017.1
20260507003230 60 325 0.9 2.6 0.00 2.85 1.72 34 1017.1
20260507003105 60 323 0.0 0.0 0.00 2.85 1.72 34 1017.0
20260507003050 60 323 0.0 0.0 0.00 2.85 1.72 34 1017.0
20260507003020 60 323 0.0 0.0 0.00 2.85 1.72 35 1017.1
20260507002926 60 33 0.0 0.0 0.00 2.85 1.72 34 1017.1
20260507002817 61 40 0.0 0.0 0.00 2.85 1.72 33 1017.1
20260507002720 61 347 0.0 0.0 0.00 2.85 1.72 35 1017.0
20260507002615 61 79 0.0 0.0 0.00 2.85 1.72 35 1017.1
20260507002514 61 345 0.0 0.0 0.00 2.85 1.72 35 1017.1
20260507002417 61 49 0.0 0.0 0.00 2.85 1.72 34 1017.1
20260507002313 61 320 0.0 0.0 0.00 2.85 1.72 34 1017.1
20260507002207 61 330 0.0 0.0 0.00 2.85 1.72 34 1017.1
20260507002103 61 330 0.0 0.0 0.00 2.85 1.72 34 1017.0
20260507002007 61 329 0.0 0.0 0.00 2.85 1.72 34 1017.0
20260507001902 61 333 0.0 0.0 0.00 2.85 1.72 34 1017.0
20260507001830 61 333 0.0 0.0 0.00 2.85 1.72 33 1017.0
20260507001705 60 30 0.0 3.5 0.00 2.85 1.72 33 1017.0
20260507001632 60 354 0.0 3.5 0.00 2.85 1.72 33 1017.0
20260507001620 60 355 0.0 3.5 0.00 2.85 1.72 33 1017.0
20260507001524 60 148 0.0 3.5 0.00 2.85 1.72 34 1017.0
20260507001417 60 139 0.0 3.5 0.00 2.85 1.72 34 1017.0
20260507001322 60 75 0.0 3.5 0.00 2.85 1.72 35 1017.0
20260507001217 60 38 0.0 3.5 0.00 2.85 1.72 34 1017.0
20260507001126 60 38 0.9 3.5 0.00 2.85 1.72 34 1017.0
20260507001020 60 333 1.7 4.3 0.00 2.85 1.72 33 1017.0
20260507000934 60 62 2.6 4.3 0.00 2.85 1.72 34 1017.0
20260507000836 60 326 2.6 4.3 0.00 2.85 1.72 34 1017.0
20260507000740 60 13 1.7 7.0 0.00 2.85 1.72 34 1016.9
20260507000614 60 42 0.9 7.0 0.00 2.85 1.72 34 1017.0
20260507000509 60 339 0.9 7.0 0.00 2.85 1.72 35 1017.0
20260507000413 60 41 0.9 7.0 0.00 2.85 1.72 34 1017.1
20260507000313 60 56 1.7 7.0 0.00 2.85 1.72 34 1017.0
20260507000206 60 356 2.6 7.0 0.00 2.85 1.72 34 1017.1
20260507000142 60 340 2.6 7.0 0.00 2.85 1.72 33 1017.0
20260507000009 60 335 3.5 7.0 0.00 2.85 1.72 33 1017.1
20260506235923 60 353 3.5 7.0 0.00 2.85 1.72 33 1017.1
20260506235846 60 319 3.5 7.0 0.00 2.93 1.72 32 1017.1
20260506235748 60 307 2.6 7.0 0.00 2.93 1.72 33 1017.1
20260506235642 60 57 2.6 6.1 0.00 2.93 1.72 32 1017.1
20260506235524 60 284 0.9 6.1 0.00 2.93 1.72 32 1017.1
20260506235403 61 309 0.0 7.0 0.00 2.93 1.72 32 1017.1
20260506235318 61 306 0.9 7.0 0.00 2.93 1.72 32 1017.1
20260506235222 61 310 1.7 7.0 0.00 2.93 1.72 32 1017.2
20260506235117 61 338 0.9 7.0 0.00 2.93 1.72 32 1017.1
20260506235011 61 314 2.6 7.0 0.00 2.93 1.72 32 1017.2
20260506234914 61 301 1.7 7.0 0.00 2.93 1.72 33 1017.2
20260506234829 61 323 0.9 7.0 0.00 2.93 1.72 33 1017.1
20260506234716 61 65 1.7 7.0 0.00 2.93 1.72 32 1017.1
20260506234646 61 271 1.7 7.0 0.00 2.93 1.72 31 1017.1
20260506234611 61 1 0.9 7.0 0.00 2.93 1.72 31 1017.1
20260506234535 61 25 0.9 3.5 0.00 2.93 1.72 33 1017.1
20260506234409 62 61 1.7 5.2 0.00 2.93 1.72 32 1017.1
20260506234304 62 309 0.9 5.2 0.00 2.93 1.72 32 1017.1
20260506234208 62 57 0.9 5.2 0.00 2.93 1.72 33 1017.1
20260506234103 62 49 0.0 7.8 0.00 2.93 1.72 34 1017.1
20260506234002 61 44 0.0 7.8 0.00 2.93 1.72 33 1017.1
20260506233906 61 294 0.0 7.8 0.00 2.93 1.72 33 1017.1
20260506233802 61 319 0.0 7.8 0.00 2.93 1.72 32 1017.0
20260506233726 61 319 0.9 7.8 0.00 2.93 1.72 32 1017.0
20260506233621 61 270 0.9 7.8 0.00 2.93 1.72 32 1017.1
20260506233515 62 279 0.0 7.8 0.00 2.93 1.72 32 1017.1
20260506233420 62 103 2.6 7.8 0.00 2.93 1.72 33 1017.1
20260506233318 62 24 2.6 7.8 0.00 2.93 1.72 32 1017.1
20260506233222 62 127 0.9 7.8 0.00 2.93 1.72 33 1017.0
20260506233116 62 302 0.9 7.8 0.00 2.93 1.72 33 1017.1
20260506233036 61 27 0.0 7.8 0.00 2.93 1.72 33 1017.1
20260506233014 62 309 0.0 7.8 0.00 2.93 1.72 33 1017.0
20260506232916 62 344 0.0 7.8 0.00 2.93 1.72 32 1017.0
20260506232811 62 50 0.9 7.8 0.00 2.93 1.72 33 1017.0
20260506232707 62 340 2.6 7.8 0.00 2.93 1.72 32 1016.9
20260506232614 62 34 1.7 7.8 0.00 2.93 1.72 33 1016.9
20260506232509 62 336 0.0 7.0 0.00 2.93 1.72 34 1016.9
20260506232404 62 309 0.0 0.0 0.00 2.93 1.72 34 1016.9
20260506232308 62 24 0.0 0.0 0.00 2.93 1.72 33 1017.0
20260506232203 62 276 0.0 0.0 0.00 2.93 1.72 33 1017.0
20260506232127 62 287 0.0 0.0 0.00 2.93 1.72 33 1017.0
20260506232002 62 315 0.0 0.0 0.00 2.93 1.72 32 1016.9
20260506231901 62 331 0.0 0.0 0.00 2.93 1.72 33 1016.9
20260506231825 62 330 0.0 0.0 0.00 2.93 1.72 34 1016.9
20260506231741 62 343 0.0 0.0 0.00 2.93 1.72 34 1017.0
20260506231623 61 102 0.0 0.0 0.00 2.93 1.72 34 1017.0
20260506231600 61 102 0.0 1.7 0.00 2.93 1.72 32 1016.9
20260506231538 61 105 0.0 1.7 0.00 2.93 1.72 32 1017.0
20260506231421 61 60 0.0 7.8 0.00 2.93 1.72 34 1016.9
20260506231316 61 26 0.0 7.8 0.00 2.93 1.72 35 1017.0
20260506231211 61 330 0.0 7.8 0.00 2.93 1.72 34 1016.9
20260506231139 61 304 0.0 7.8 0.00 2.93 1.72 33 1017.0
20260506231013 61 314 0.0 7.8 0.00 2.93 1.72 34 1016.9
20260506230918 61 283 0.0 7.8 0.00 2.93 1.72 34 1016.9
20260506230832 61 65 0.9 8.7 0.00 2.93 1.72 33 1016.9
20260506230715 61 333 2.6 8.7 0.00 2.93 1.72 32 1016.9
20260506230609 61 7 2.6 9.6 0.00 2.93 1.72 33 1016.9
20260506230504 61 347 1.7 9.6 0.00 2.93 1.72 32 1016.9
20260506230412 61 36 2.6 9.6 0.00 2.93 1.72 32 1016.9
20260506230307 61 317 1.7 10.4 0.00 2.93 1.72 33 1017.0
20260506230202 61 329 2.6 10.4 0.00 2.93 1.72 33 1016.9
20260506230136 61 32 2.6 10.4 0.00 2.93 1.72 32 1016.9
20260506230028 61 302 3.5 10.4 0.00 2.93 1.72 32 1017.0
20260506230017 61 49 3.5 10.4 0.00 2.93 1.72 32 1017.0
20260506225919 61 59 3.5 10.4 0.00 3.13 1.72 33 1016.9
20260506225833 61 33 2.6 10.4 0.00 3.13 1.72 34 1016.9
20260506225701 61 327 2.6 10.4 0.00 3.13 1.72 33 1016.9
20260506225615 61 49 4.3 10.4 0.00 3.13 1.72 32 1017.0
20260506225520 61 344 5.2 10.4 0.00 3.13 1.72 32 1017.0
20260506225413 61 38 3.5 7.8 0.00 3.13 1.72 33 1017.0
20260506225308 61 36 2.6 7.8 0.00 3.13 1.72 34 1016.9
20260506225203 61 339 1.7 7.8 0.00 3.13 1.72 33 1017.0
20260506225107 61 32 0.9 8.7 0.00 3.13 1.72 34 1016.9
20260506225006 61 330 0.9 8.7 0.00 3.13 1.72 32 1016.9
20260506224930 61 310 0.0 8.7 0.00 3.13 1.72 32 1016.9
20260506224805 61 319 0.9 8.7 0.00 3.13 1.72 34 1016.9
20260506224720 61 8 1.7 9.6 0.00 3.13 1.72 32 1016.9
20260506224624 61 306 1.7 9.6 0.00 3.13 1.72 32 1016.9
20260506224554 61 305 1.7 9.6 0.00 3.13 1.72 33 1017.0
20260506224520 61 350 2.6 9.6 0.00 3.13 1.72 33 1017.0
20260506224413 61 65 2.6 9.6 0.00 3.13 1.72 33 1017.0
20260506224321 61 15 3.5 9.6 0.00 3.13 1.72 33 1016.9
20260506224216 61 51 4.3 9.6 0.00 3.13 1.72 33 1016.9
20260506224111 61 57 4.3 9.6 0.00 3.13 1.72 33 1017.0
20260506224015 62 28 6.1 9.6 0.00 3.13 1.72 32 1016.9
20260506223910 62 331 2.6 9.6 0.00 3.13 1.72 32 1017.0
20260506223805 62 311 0.0 4.3 0.00 3.13 1.72 33 1016.9
20260506223709 62 37 0.0 4.3 0.00 3.13 1.72 33 1016.9
20260506223606 62 23 0.9 6.1 0.00 3.13 1.72 33 1016.9
20260506223510 61 330 0.9 6.1 0.00 3.13 1.72 35 1017.0
20260506223405 61 41 0.9 9.6 0.00 3.13 1.72 34 1017.0
20260506223329 61 75 0.9 9.6 0.00 3.13 1.72 35 1017.0
20260506223204 61 35 0.9 10.4 0.00 3.13 1.72 34 1017.0
20260506223138 60 27 0.9 10.4 0.00 3.13 1.72 33 1017.0
20260506223119 61 100 1.7 10.4 0.00 3.13 1.72 33 1017.0
20260506223025 61 9 2.6 10.4 0.00 3.13 1.72 32 1017.0
20260506222902 61 318 2.6 10.4 0.00 3.13 1.72 33 1017.0
20260506222817 61 307 3.5 10.4 0.00 3.13 1.72 33 1017.0
20260506222721 61 318 5.2 10.4 0.00 3.13 1.72 33 1017.0
20260506222616 61 15 6.1 10.4 0.00 3.13 1.72 32 1017.0
20260506222540 61 351 5.2 10.4 0.00 3.13 1.72 32 1017.0
20260506222414 61 333 5.2 7.8 0.00 3.13 1.72 33 1017.0
20260506222309 61 279 4.3 7.8 0.00 3.13 1.72 32 1017.0
20260506222217 61 332 3.5 7.0 0.00 3.13 1.72 33 1017.1
20260506222112 61 342 3.5 6.1 0.00 3.13 1.72 33 1017.0
20260506222007 61 25 3.5 6.1 0.00 3.13 1.72 33 1017.0
20260506221911 61 333 3.5 6.1 0.00 3.13 1.72 33 1017.0
20260506221806 62 33 2.6 7.8 0.00 3.13 1.72 32 1017.1
20260506221730 62 303 1.7 7.8 0.00 3.13 1.72 32 1017.1
20260506221604 62 337 0.9 7.8 0.00 3.13 1.72 31 1017.0
20260506221521 61 31 0.9 7.8 0.00 3.13 1.72 32 1017.1
20260506221503 62 18 1.7 7.8 0.00 3.13 1.72 32 1017.1
20260506221407 62 266 2.6 7.8 0.00 3.13 1.72 32 1017.1
20260506221302 62 320 2.6 7.8 0.00 3.13 1.72 33 1017.1
20260506221226 62 302 2.6 7.8 0.00 3.13 1.72 33 1017.1
20260506221121 62 295 3.5 7.8 0.00 3.13 1.72 33 1017.1
20260506221016 62 1 1.7 7.8 0.00 3.13 1.72 34 1017.1
20260506220920 62 314 1.7 5.2 0.00 3.13 1.72 33 1017.1
20260506220814 62 66 1.7 5.2 0.00 3.13 1.72 33 1017.1
20260506220722 62 60 1.7 5.2 0.00 3.13 1.72 34 1017.2
20260506220617 62 59 1.7 5.2 0.00 3.13 1.72 34 1017.1
20260506220511 61 336 2.6 5.2 0.00 3.13 1.72 34 1017.1
20260506220415 61 285 2.6 5.2 0.00 3.13 1.72 34 1017.1
20260506220330 61 6 0.9 4.3 0.00 3.13 1.72 35 1017.1
20260506220213 61 312 0.0 5.2 0.00 3.13 1.72 33 1017.1
20260506220154 60 27 0.0 5.2 0.00 3.13 1.72 33 1017.1
20260506220119 61 48 0.0 5.2 0.00 3.13 1.72 33 1017.1
20260506220012 61 332 0.0 5.2 0.00 3.13 1.72 32 1017.2
20260506215904 61 318 0.0 7.0 0.00 3.23 1.72 32 1017.3
20260506215820 61 279 0.0 7.0 0.00 3.23 1.72 33 1017.2
20260506215724 61 281 0.9 7.0 0.00 3.23 1.72 34 1017.2
20260506215638 61 289 1.7 7.0 0.00 3.23 1.72 33 1017.2
20260506215521 61 281 2.6 7.0 0.00 3.23 1.72 32 1017.2
20260506215416 61 272 2.6 7.0 0.00 3.23 1.72 32 1017.3
20260506215324 61 273 2.6 7.0 0.00 3.23 1.72 33 1017.3
20260506215219 61 290 2.6 7.8 0.00 3.23 1.72 35 1017.3
20260506215113 61 323 1.7 7.8 0.00 3.23 1.72 34 1017.3
20260506215007 61 322 0.0 7.8 0.00 3.23 1.72 33 1017.3
20260506214911 61 309 0.0 7.8 0.00 3.23 1.72 33 1017.3
20260506214805 61 331 0.9 7.8 0.00 3.23 1.72 32 1017.3
20260506214730 61 341 1.7 7.8 0.00 3.23 1.72 34 1017.3
20260506214608 61 319 1.7 7.8 0.00 3.23 1.72 33 1017.3
20260506214515 61 18 3.5 7.8 0.00 3.23 1.72 33 1017.4
20260506214502 61 295 3.5 7.8 0.00 3.23 1.72 33 1017.4
20260506214425 62 321 4.3 7.8 0.00 3.23 1.72 33 1017.4
20260506214328 62 325 5.2 7.0 0.00 3.23 1.72 33 1017.4
20260506214223 62 324 2.6 7.0 0.00 3.23 1.72 33 1017.4
20260506214126 62 278 1.7 7.0 0.00 3.23 1.72 33 1017.4
20260506214021 62 310 0.0 7.0 0.00 3.23 1.72 36 1017.3
20260506213915 62 349 0.0 8.7 0.00 3.23 1.72 36 1017.3
20260506213824 62 42 0.0 8.7 0.00 3.23 1.72 35 1017.3
20260506213719 62 39 0.0 8.7 0.00 3.23 1.72 33 1017.4
20260506213625 62 49 1.7 8.7 0.00 3.23 1.72 35 1017.4
20260506213518 62 221 2.6 8.7 0.00 3.23 1.72 33 1017.4
20260506213412 62 64 2.6 8.7 0.00 3.23 1.72 34 1017.4
20260506213316 61 44 2.6 8.7 0.00 3.23 1.72 34 1017.4
20260506213211 62 28 4.3 8.7 0.00 3.23 1.72 33 1017.4
20260506213129 61 338 3.5 10.4 0.00 3.23 1.72 33 1017.4
20260506213109 62 49 4.3 10.4 0.00 3.23 1.72 33 1017.4
20260506213034 62 47 3.5 10.4 0.00 3.23 1.72 35 1017.4
20260506212935 62 64 2.6 10.4 0.00 3.23 1.72 35 1017.4
20260506212809 61 308 2.6 10.4 0.00 3.23 1.72 34 1017.4
20260506212715 61 342 1.7 10.4 0.00 3.23 1.72 35 1017.4
20260506212608 61 97 1.7 10.4 0.00 3.23 1.72 35 1017.4
20260506212503 61 30 3.5 10.4 0.00 3.23 1.72 33 1017.4
20260506212427 61 86 4.3 10.4 0.00 3.23 1.72 33 1017.4
20260506212307 62 353 4.3 10.4 0.00 3.23 1.72 33 1017.4
20260506212201 62 53 2.6 9.6 0.00 3.23 1.72 36 1017.4
20260506212126 61 21 2.6 9.6 0.00 3.23 1.72 35 1017.4
20260506212039 61 47 3.5 9.6 0.00 3.23 1.72 34 1017.3
20260506211922 61 61 1.7 9.6 0.00 3.23 1.72 34 1017.3
20260506211816 61 64 1.7 9.6 0.00 3.23 1.72 34 1017.3
20260506211712 61 346 1.7 9.6 0.00 3.23 1.72 33 1017.4
20260506211602 61 37 2.6 7.8 0.00 3.23 1.72 34 1017.4
20260506211543 60 310 2.6 7.8 0.00 3.23 1.72 33 1017.4
20260506211515 61 321 3.5 7.8 0.00 3.23 1.72 33 1017.4
20260506211409 61 300 2.6 7.8 0.00 3.23 1.72 32 1017.5
20260506211313 61 310 2.6 7.8 0.00 3.23 1.72 32 1017.6
20260506211228 61 73 3.5 7.8 0.00 3.23 1.72 35 1017.6
20260506211109 61 91 3.5 7.8 0.00 3.23 1.72 34 1017.6
20260506211004 61 29 1.7 7.8 0.00 3.23 1.72 36 1017.6
20260506210908 61 42 2.6 7.8 0.00 3.23 1.72 34 1017.6
20260506210807 60 31 3.5 7.8 0.00 3.23 1.72 33 1017.6
20260506210702 60 46 1.7 8.7 0.00 3.23 1.72 33 1017.7
20260506210606 60 67 0.9 8.7 0.00 3.23 1.72 33 1017.6
20260506210521 60 79 0.0 8.7 0.00 3.23 1.72 35 1017.7
20260506210424 60 355 0.9 8.7 0.00 3.23 1.72 36 1017.7
20260506210339 60 342 2.6 8.7 0.00 3.23 1.72 35 1017.7
20260506210221 60 340 4.3 8.7 0.00 3.23 1.72 34 1017.7
20260506210150 60 314 3.5 8.7 0.00 3.23 1.72 34 1017.7
20260506210131 60 310 4.3 8.7 0.00 3.23 1.72 34 1017.7
20260506210040 60 32 4.3 8.7 0.00 3.23 1.72 33 1017.9
20260506205913 60 329 3.5 8.7 0.00 3.23 1.72 34 1017.9
20260506205816 60 257 3.5 8.7 0.00 3.23 1.72 33 1017.9
20260506205711 60 313 1.7 8.7 0.00 3.23 1.72 32 1017.9
20260506205613 60 307 0.0 8.7 0.00 3.23 1.72 35 1017.9
20260506205508 60 276 1.7 8.7 0.00 3.23 1.72 34 1018.0